Wetterdaten: Donnerstag, 05.01.2023
Datum Zeit Temp. Aussen Temp. o. S. Temp +5cm Feuchte Auss Luftdruck Regen Sonnenschein Regendauer Solar Windben Empfang
05.01.2023 00:00 11,8 C 11,1 C 7,8 C 86 % 1016,7 hPa 0,0 l/m 0 min 0 min 0 W/m 19,3 km/h (3 Bft) 100,00 %
05.01.2023 00:02 11,8 C 11,1 C 7,8 C 86 % 1016,6 hPa 0,0 l/m 0 min 0 min 0 W/m 35,4 km/h (5 Bft) 100,00 %
05.01.2023 00:04 11,8 C 11,1 C 7,8 C 86 % 1016,5 hPa 0,0 l/m 0 min 0 min 0 W/m 25,7 km/h (4 Bft) 100,00 %
05.01.2023 00:07 11,8 C 11,1 C 7,8 C 86 % 1016,5 hPa 0,0 l/m 0 min 0 min 0 W/m 16,1 km/h (3 Bft) 100,00 %
05.01.2023 00:08 11,8 C 11,1 C 7,8 C 86 % 1016,5 hPa 0,0 l/m 0 min 0 min 0 W/m 16,1 km/h (3 Bft) 95,83 %
05.01.2023 00:12 11,8 C 11,1 C 7,8 C 86 % 1016,6 hPa 0,0 l/m 0 min 0 min 0 W/m 25,7 km/h (4 Bft) 100,00 %
05.01.2023 00:14 11,8 C 11,1 C 7,8 C 86 % 1016,6 hPa 0,0 l/m 0 min 0 min 0 W/m 19,3 km/h (3 Bft) 100,00 %
05.01.2023 00:16 11,8 C 11,1 C 7,8 C 86 % 1016,6 hPa 0,0 l/m 0 min 0 min 0 W/m 29,0 km/h (5 Bft) 100,00 %
05.01.2023 00:18 11,8 C 11,1 C 7,8 C 85 % 1016,5 hPa 0,0 l/m 0 min 0 min 0 W/m 16,1 km/h (3 Bft) 100,00 %
05.01.2023 00:20 11,8 C 11,1 C 7,8 C 86 % 1016,6 hPa 0,0 l/m 0 min 0 min 0 W/m 19,3 km/h (3 Bft) 100,00 %
05.01.2023 00:22 11,8 C 11,1 C 7,8 C 86 % 1016,5 hPa 0,0 l/m 0 min 0 min 0 W/m 16,1 km/h (3 Bft) 100,00 %
05.01.2023 00:24 11,8 C 11,1 C 7,8 C 86 % 1016,5 hPa 0,0 l/m 0 min 0 min 0 W/m 16,1 km/h (3 Bft) 100,00 %
05.01.2023 00:26 11,8 C 11,1 C 7,8 C 86 % 1016,6 hPa 0,0 l/m 0 min 0 min 0 W/m 9,7 km/h (2 Bft) 100,00 %
05.01.2023 00:28 11,7 C 11,1 C 7,8 C 86 % 1016,6 hPa 0,0 l/m 0 min 0 min 0 W/m 12,9 km/h (3 Bft) 100,00 %
05.01.2023 00:30 11,7 C 11,1 C 7,8 C 86 % 1016,6 hPa 0,0 l/m 0 min 0 min 0 W/m 19,3 km/h (3 Bft) 100,00 %
05.01.2023 00:32 11,7 C 11,1 C 7,8 C 86 % 1016,7 hPa 0,0 l/m 0 min 0 min 0 W/m 12,9 km/h (3 Bft) 97,87 %
05.01.2023 00:34 11,7 C 11,1 C 7,8 C 86 % 1016,7 hPa 0,0 l/m 0 min 0 min 0 W/m 16,1 km/h (3 Bft) 95,74 %
05.01.2023 00:36 11,7 C 11,1 C 7,8 C 86 % 1016,7 hPa 0,0 l/m 0 min 0 min 0 W/m 16,1 km/h (3 Bft) 97,83 %
05.01.2023 00:38 11,7 C 11,1 C 7,8 C 86 % 1016,8 hPa 0,0 l/m 0 min 0 min 0 W/m 16,1 km/h (3 Bft) 100,00 %
05.01.2023 00:40 11,7 C 11,1 C 7,8 C 86 % 1016,8 hPa 0,0 l/m 0 min 0 min 0 W/m 12,9 km/h (3 Bft) 100,00 %
05.01.2023 00:42 11,7 C 11,1 C 7,8 C 86 % 1016,8 hPa 0,0 l/m 0 min 0 min 0 W/m 19,3 km/h (3 Bft) 97,87 %
05.01.2023 00:44 11,7 C 11,1 C 7,8 C 86 % 1016,8 hPa 0,0 l/m 0 min 0 min 0 W/m 16,1 km/h (3 Bft) 100,00 %
05.01.2023 00:46 11,7 C 11,1 C 7,8 C 86 % 1016,8 hPa 0,0 l/m 0 min 0 min 0 W/m 22,5 km/h (4 Bft) 100,00 %
05.01.2023 00:48 11,7 C 11,1 C 7,8 C 86 % 1016,8 hPa 0,0 l/m 0 min 0 min 0 W/m 25,7 km/h (4 Bft) 100,00 %
05.01.2023 00:50 11,7 C 11,1 C 7,8 C 86 % 1016,7 hPa 0,0 l/m 0 min 0 min 0 W/m 19,3 km/h (3 Bft) 100,00 %
05.01.2023 00:52 11,7 C 11,1 C 7,8 C 86 % 1016,8 hPa 0,0 l/m 0 min 0 min 0 W/m 25,7 km/h (4 Bft) 97,87 %
05.01.2023 00:54 11,7 C 11,1 C 7,8 C 86 % 1016,9 hPa 0,0 l/m 0 min 0 min 0 W/m 16,1 km/h (3 Bft) 97,87 %
05.01.2023 00:56 11,7 C 11,1 C 7,8 C 86 % 1016,9 hPa 0,0 l/m 0 min 0 min 0 W/m 22,5 km/h (4 Bft) 97,87 %
05.01.2023 00:58 11,7 C 11,1 C 7,8 C 86 % 1016,8 hPa 0,0 l/m 0 min 0 min 0 W/m 16,1 km/h (3 Bft) 95,74 %
05.01.2023 01:00 11,7 C 11,1 C 7,8 C 86 % 1016,8 hPa 0,0 l/m 0 min 0 min 0 W/m 35,4 km/h (5 Bft) 97,87 %
05.01.2023 01:02 11,7 C 11,1 C 7,8 C 86 % 1016,9 hPa 0,0 l/m 0 min 0 min 0 W/m 19,3 km/h (3 Bft) 97,83 %
05.01.2023 01:04 11,7 C 11,1 C 7,8 C 86 % 1016,9 hPa 0,0 l/m 0 min 0 min 0 W/m 25,7 km/h (4 Bft) 97,87 %
05.01.2023 01:06 11,7 C 11,1 C 7,8 C 86 % 1016,9 hPa 0,0 l/m 0 min 0 min 0 W/m 16,1 km/h (3 Bft) 94,92 %
05.01.2023 01:08 11,6 C 10,6 C 7,8 C 86 % 1017,1 hPa 0,0 l/m 0 min 0 min 0 W/m 19,3 km/h (3 Bft) 100,00 %
05.01.2023 01:10 11,6 C 11,1 C 7,8 C 86 % 1017,0 hPa 0,0 l/m 0 min 0 min 0 W/m 25,7 km/h (4 Bft) 97,87 %
05.01.2023 01:12 11,6 C 10,6 C 7,8 C 86 % 1017,0 hPa 0,0 l/m 0 min 0 min 0 W/m 22,5 km/h (4 Bft) 95,74 %
05.01.2023 01:14 11,6 C 11,1 C 7,8 C 86 % 1017,0 hPa 0,0 l/m 0 min 0 min 0 W/m 19,3 km/h (3 Bft) 95,65 %
05.01.2023 01:16 11,6 C 10,6 C 7,8 C 86 % 1017,0 hPa 0,0 l/m 0 min 0 min 0 W/m 19,3 km/h (3 Bft) 95,74 %
05.01.2023 01:18 11,6 C 10,6 C 7,8 C 86 % 1017,0 hPa 0,0 l/m 0 min 0 min 0 W/m 22,5 km/h (4 Bft) 95,74 %
05.01.2023 01:20 11,6 C 10,6 C 7,8 C 86 % 1017,0 hPa 0,0 l/m 0 min 0 min 0 W/m 41,8 km/h (6 Bft) 93,62 %
05.01.2023 01:22 11,6 C 10,6 C 7,8 C 86 % 1017,0 hPa 0,0 l/m 0 min 0 min 0 W/m 22,5 km/h (4 Bft) 95,74 %
05.01.2023 01:24 11,6 C 10,6 C 7,8 C 86 % 1017,0 hPa 0,0 l/m 0 min 0 min 0 W/m 19,3 km/h (3 Bft) 97,87 %
05.01.2023 01:26 11,6 C 10,6 C 7,8 C 86 % 1017,0 hPa 0,0 l/m 0 min 0 min 0 W/m 25,7 km/h (4 Bft) 95,74 %
05.01.2023 01:28 11,6 C 10,6 C 7,8 C 85 % 1017,1 hPa 0,0 l/m 0 min 0 min 0 W/m 19,3 km/h (3 Bft) 95,65 %
05.01.2023 01:30 11,6 C 10,6 C 7,8 C 85 % 1017,0 hPa 0,0 l/m 0 min 0 min 0 W/m 16,1 km/h (3 Bft) 97,87 %
05.01.2023 01:32 11,6 C 10,6 C 7,8 C 85 % 1017,0 hPa 0,0 l/m 0 min 0 min 0 W/m 25,7 km/h (4 Bft) 97,87 %
05.01.2023 01:34 11,6 C 10,6 C 7,8 C 85 % 1016,8 hPa 0,0 l/m 0 min 0 min 0 W/m 19,3 km/h (3 Bft) 97,87 %
05.01.2023 01:36 11,5 C 10,6 C 7,8 C 85 % 1016,9 hPa 0,0 l/m 0 min 0 min 0 W/m 19,3 km/h (3 Bft) 97,87 %
05.01.2023 01:38 11,5 C 10,6 C 7,8 C 85 % 1017,0 hPa 0,0 l/m 0 min 0 min 0 W/m 19,3 km/h (3 Bft) 95,74 %
05.01.2023 01:40 11,5 C 10,6 C 7,8 C 85 % 1017,1 hPa 0,0 l/m 0 min 0 min 0 W/m 22,5 km/h (4 Bft) 93,48 %
05.01.2023 01:42 11,5 C 10,6 C 7,2 C 85 % 1017,1 hPa 0,0 l/m 0 min 0 min 0 W/m 19,3 km/h (3 Bft) 97,87 %
05.01.2023 01:44 11,5 C 10,6 C 7,2 C 85 % 1017,0 hPa 0,0 l/m 0 min 0 min 0 W/m 25,7 km/h (4 Bft) 93,62 %
05.01.2023 01:46 11,5 C 10,6 C 7,8 C 85 % 1017,0 hPa 0,0 l/m 0 min 0 min 0 W/m 22,5 km/h (4 Bft) 95,74 %
05.01.2023 01:48 11,5 C 10,6 C 7,2 C 85 % 1017,0 hPa 0,0 l/m 0 min 0 min 0 W/m 19,3 km/h (3 Bft) 95,74 %
05.01.2023 01:50 11,5 C 10,6 C 7,2 C 85 % 1017,0 hPa 0,0 l/m 0 min 0 min 0 W/m 22,5 km/h (4 Bft) 97,87 %
05.01.2023 01:52 11,5 C 10,6 C 7,2 C 85 % 1017,0 hPa 0,0 l/m 0 min 0 min 0 W/m 19,3 km/h (3 Bft) 93,62 %
05.01.2023 01:54 11,5 C 10,6 C 7,2 C 85 % 1017,1 hPa 0,0 l/m 0 min 0 min 0 W/m 19,3 km/h (3 Bft) 95,65 %
05.01.2023 01:56 11,4 C 10,6 C 7,2 C 85 % 1017,1 hPa 0,0 l/m 0 min 0 min 0 W/m 16,1 km/h (3 Bft) 95,74 %
05.01.2023 01:58 11,4 C 10,6 C 7,2 C 85 % 1017,1 hPa 0,0 l/m 0 min 0 min 0 W/m 19,3 km/h (3 Bft) 97,87 %
05.01.2023 02:00 11,4 C 10,6 C 7,2 C 85 % 1017,1 hPa 0,0 l/m 0 min 0 min 0 W/m 25,7 km/h (4 Bft) 97,87 %
05.01.2023 02:02 11,4 C 10,6 C 7,2 C 85 % 1017,1 hPa 0,0 l/m 0 min 0 min 0 W/m 22,5 km/h (4 Bft) 95,74 %
05.01.2023 02:04 11,4 C 10,6 C 7,2 C 85 % 1017,1 hPa 0,0 l/m 0 min 0 min 0 W/m 19,3 km/h (3 Bft) 97,87 %
05.01.2023 02:06 11,4 C 10,6 C 7,2 C 85 % 1017,1 hPa 0,0 l/m 0 min 0 min 0 W/m 22,5 km/h (4 Bft) 96,55 %
05.01.2023 02:08 11,4 C 10,6 C 7,2 C 85 % 1017,0 hPa 0,0 l/m 0 min 0 min 0 W/m 19,3 km/h (3 Bft) 97,14 %
05.01.2023 02:10 11,4 C 10,6 C 7,2 C 85 % 1017,0 hPa 0,0 l/m 0 min 0 min 0 W/m 16,1 km/h (3 Bft) 93,62 %
05.01.2023 02:16 11,3 C 10,6 C 7,2 C 85 % 1017,1 hPa 0,0 l/m 0 min 0 min 0 W/m 19,3 km/h (3 Bft) 93,94 %
05.01.2023 02:18 11,3 C 10,6 C 7,2 C 85 % 1017,1 hPa 0,0 l/m 0 min 0 min 0 W/m 16,1 km/h (3 Bft) 97,14 %
05.01.2023 02:20 11,3 C 10,6 C 7,2 C 86 % 1017,3 hPa 0,0 l/m 0 min 0 min 0 W/m 22,5 km/h (4 Bft) 97,87 %
05.01.2023 02:22 11,3 C 10,6 C 7,2 C 85 % 1017,4 hPa 0,0 l/m 0 min 0 min 0 W/m 22,5 km/h (4 Bft) 97,87 %
05.01.2023 02:24 11,3 C 10,6 C 7,2 C 85 % 1017,3 hPa 0,0 l/m 0 min 0 min 0 W/m 16,1 km/h (3 Bft) 93,62 %
05.01.2023 02:26 11,3 C 10,6 C 7,2 C 86 % 1017,2 hPa 0,0 l/m 0 min 0 min 0 W/m 16,1 km/h (3 Bft) 97,87 %
05.01.2023 02:28 11,3 C 10,6 C 7,2 C 86 % 1017,2 hPa 0,0 l/m 0 min 0 min 0 W/m 16,1 km/h (3 Bft) 97,87 %
05.01.2023 02:30 11,3 C 10,6 C 7,2 C 86 % 1017,3 hPa 0,0 l/m 0 min 0 min 0 W/m 16,1 km/h (3 Bft) 98,15 %
05.01.2023 02:32 11,3 C 10,6 C 7,2 C 86 % 1017,2 hPa 0,0 l/m 0 min 0 min 0 W/m 12,9 km/h (3 Bft) 97,87 %
05.01.2023 02:34 11,2 C 10,6 C 7,2 C 86 % 1017,3 hPa 0,0 l/m 0 min 0 min 0 W/m 22,5 km/h (4 Bft) 97,87 %
05.01.2023 02:36 11,2 C 10,6 C 7,2 C 86 % 1017,5 hPa 0,0 l/m 0 min 0 min 0 W/m 22,5 km/h (4 Bft) 100,00 %
05.01.2023 02:38 11,2 C 10,6 C 7,2 C 86 % 1017,3 hPa 0,0 l/m 0 min 0 min 0 W/m 16,1 km/h (3 Bft) 100,00 %
05.01.2023 02:40 11,2 C 10,6 C 7,2 C 86 % 1017,4 hPa 0,0 l/m 0 min 0 min 0 W/m 19,3 km/h (3 Bft) 100,00 %
05.01.2023 02:42 11,2 C 10,6 C 7,2 C 86 % 1017,4 hPa 0,0 l/m 0 min 0 min 0 W/m 16,1 km/h (3 Bft) 97,87 %
05.01.2023 02:44 11,2 C 10,6 C 7,2 C 86 % 1017,5 hPa 0,0 l/m 0 min 0 min 0 W/m 19,3 km/h (3 Bft) 100,00 %
05.01.2023 02:46 11,2 C 10,6 C 7,2 C 86 % 1017,5 hPa 0,0 l/m 0 min 0 min 0 W/m 16,1 km/h (3 Bft) 100,00 %
05.01.2023 02:48 11,2 C 10,6 C 7,2 C 86 % 1017,5 hPa 0,0 l/m 0 min 0 min 0 W/m 22,5 km/h (4 Bft) 97,87 %
05.01.2023 02:50 11,2 C 10,6 C 7,2 C 86 % 1017,5 hPa 0,0 l/m 0 min 0 min 0 W/m 25,7 km/h (4 Bft) 95,74 %
05.01.2023 02:52 11,2 C 10,6 C 7,2 C 86 % 1017,5 hPa 0,0 l/m 0 min 0 min 0 W/m 25,7 km/h (4 Bft) 97,87 %
05.01.2023 02:54 11,2 C 10,6 C 7,2 C 86 % 1017,5 hPa 0,0 l/m 0 min 0 min 0 W/m 22,5 km/h (4 Bft) 97,87 %
05.01.2023 02:56 11,2 C 10,6 C 7,2 C 86 % 1017,5 hPa 0,0 l/m 0 min 0 min 0 W/m 25,7 km/h (4 Bft) 97,87 %
05.01.2023 02:58 11,2 C 10,6 C 7,2 C 86 % 1017,5 hPa 0,0 l/m 0 min 0 min 0 W/m 22,5 km/h (4 Bft) 95,65 %
05.01.2023 03:00 11,2 C 10,6 C 7,2 C 86 % 1017,6 hPa 0,0 l/m 0 min 0 min 0 W/m 19,3 km/h (3 Bft) 97,87 %
05.01.2023 03:02 11,2 C 10,6 C 7,2 C 86 % 1017,6 hPa 0,0 l/m 0 min 0 min 0 W/m 16,1 km/h (3 Bft) 97,87 %
05.01.2023 03:04 11,2 C 10,6 C 7,2 C 86 % 1017,7 hPa 0,0 l/m 0 min 0 min 0 W/m 12,9 km/h (3 Bft) 97,87 %
05.01.2023 03:06 11,1 C 10,6 C 7,2 C 86 % 1017,7 hPa 0,0 l/m 0 min 0 min 0 W/m 16,1 km/h (3 Bft) 98,31 %
05.01.2023 03:08 11,1 C 10,6 C 7,2 C 86 % 1017,7 hPa 0,0 l/m 0 min 0 min 0 W/m 16,1 km/h (3 Bft) 97,14 %
05.01.2023 03:10 11,1 C 10,6 C 7,2 C 87 % 1017,7 hPa 0,0 l/m 0 min 0 min 0 W/m 16,1 km/h (3 Bft) 93,62 %
05.01.2023 03:12 11,1 C 10,6 C 7,2 C 87 % 1017,7 hPa 0,0 l/m 0 min 0 min 0 W/m 22,5 km/h (4 Bft) 97,83 %
05.01.2023 03:14 11,1 C 10,6 C 7,2 C 87 % 1017,7 hPa 0,0 l/m 0 min 0 min 0 W/m 12,9 km/h (3 Bft) 97,87 %
05.01.2023 03:16 11,1 C 10,6 C 7,2 C 87 % 1017,6 hPa 0,0 l/m 0 min 0 min 0 W/m 16,1 km/h (3 Bft) 97,87 %
05.01.2023 03:18 11,1 C 10,6 C 7,2 C 87 % 1017,6 hPa 0,0 l/m 0 min 0 min 0 W/m 19,3 km/h (3 Bft) 97,87 %
05.01.2023 03:20 11,1 C 10,6 C 7,2 C 87 % 1017,7 hPa 0,0 l/m 0 min 0 min 0 W/m 12,9 km/h (3 Bft) 97,87 %
05.01.2023 03:22 11,1 C 10,6 C 7,2 C 87 % 1017,7 hPa 0,0 l/m 0 min 0 min 0 W/m 19,3 km/h (3 Bft) 97,87 %
05.01.2023 03:24 11,1 C 10,6 C 7,2 C 87 % 1017,7 hPa 0,0 l/m 0 min 0 min 0 W/m 29,0 km/h (5 Bft) 97,83 %
05.01.2023 03:26 11,1 C 10,6 C 7,2 C 86 % 1017,7 hPa 0,0 l/m 0 min 0 min 0 W/m 35,4 km/h (5 Bft) 100,00 %
05.01.2023 03:28 11,1 C 10,6 C 7,2 C 86 % 1017,7 hPa 0,0 l/m 0 min 0 min 0 W/m 25,7 km/h (4 Bft) 100,00 %
05.01.2023 03:30 11,1 C 10,6 C 7,2 C 86 % 1017,6 hPa 0,0 l/m 0 min 0 min 0 W/m 19,3 km/h (3 Bft) 100,00 %
05.01.2023 03:32 11,1 C 10,6 C 7,2 C 86 % 1017,8 hPa 0,0 l/m 0 min 0 min 0 W/m 19,3 km/h (3 Bft) 97,87 %
05.01.2023 03:34 11,1 C 10,6 C 7,2 C 86 % 1017,7 hPa 0,0 l/m 0 min 0 min 0 W/m 22,5 km/h (4 Bft) 97,87 %
05.01.2023 03:36 11,1 C 10,6 C 7,2 C 86 % 1017,7 hPa 0,0 l/m 0 min 0 min 0 W/m 25,7 km/h (4 Bft) 100,00 %
05.01.2023 03:38 11,1 C 10,6 C 7,2 C 86 % 1017,7 hPa 0,0 l/m 0 min 0 min 0 W/m 25,7 km/h (4 Bft) 100,00 %
05.01.2023 03:40 11,1 C 10,6 C 7,2 C 86 % 1017,8 hPa 0,0 l/m 0 min 0 min 0 W/m 25,7 km/h (4 Bft) 100,00 %
05.01.2023 03:42 11,1 C 10,6 C 7,2 C 86 % 1017,8 hPa 0,0 l/m 0 min 0 min 0 W/m 45,1 km/h (6 Bft) 97,87 %
05.01.2023 03:44 11,1 C 10,6 C 7,2 C 86 % 1017,8 hPa 0,0 l/m 0 min 0 min 0 W/m 22,5 km/h (4 Bft) 100,00 %
05.01.2023 03:46 11,1 C 10,6 C 7,2 C 86 % 1017,7 hPa 0,0 l/m 0 min 0 min 0 W/m 22,5 km/h (4 Bft) 100,00 %
05.01.2023 03:48 11,1 C 10,6 C 7,2 C 86 % 1017,8 hPa 0,0 l/m 0 min 0 min 0 W/m 19,3 km/h (3 Bft) 97,87 %
05.01.2023 03:50 11,1 C 10,0 C 7,2 C 86 % 1017,8 hPa 0,0 l/m 0 min 0 min 0 W/m 29,0 km/h (5 Bft) 95,65 %
05.01.2023 03:52 11,1 C 10,0 C 7,2 C 86 % 1017,8 hPa 0,0 l/m 0 min 0 min 0 W/m 19,3 km/h (3 Bft) 95,74 %
05.01.2023 03:54 11,0 C 10,0 C 7,2 C 87 % 1017,8 hPa 0,0 l/m 0 min 0 min 0 W/m 19,3 km/h (3 Bft) 97,87 %
05.01.2023 03:56 11,0 C 10,0 C 7,2 C 87 % 1017,8 hPa 0,0 l/m 0 min 0 min 0 W/m 22,5 km/h (4 Bft) 97,87 %
05.01.2023 03:58 10,9 C 10,0 C 6,7 C 87 % 1017,8 hPa 0,0 l/m 0 min 0 min 0 W/m 16,1 km/h (3 Bft) 97,87 %
05.01.2023 04:00 10,9 C 10,0 C 6,7 C 87 % 1017,7 hPa 0,0 l/m 0 min 0 min 0 W/m 16,1 km/h (3 Bft) 97,87 %
05.01.2023 04:02 10,9 C 10,0 C 6,7 C 87 % 1017,7 hPa 0,0 l/m 0 min 0 min 0 W/m 19,3 km/h (3 Bft) 97,87 %
05.01.2023 04:04 10,9 C 10,0 C 6,7 C 87 % 1017,7 hPa 0,0 l/m 0 min 0 min 0 W/m 32,2 km/h (5 Bft) 97,87 %
05.01.2023 04:06 10,9 C 10,0 C 6,7 C 87 % 1017,8 hPa 0,0 l/m 0 min 0 min 0 W/m 16,1 km/h (3 Bft) 98,31 %
05.01.2023 04:08 10,9 C 10,0 C 6,7 C 87 % 1017,8 hPa 0,0 l/m 0 min 0 min 0 W/m 19,3 km/h (3 Bft) 97,14 %
05.01.2023 04:10 10,9 C 10,0 C 6,7 C 87 % 1017,8 hPa 0,0 l/m 0 min 0 min 0 W/m 19,3 km/h (3 Bft) 97,87 %
05.01.2023 04:12 10,9 C 10,0 C 6,7 C 87 % 1017,8 hPa 0,0 l/m 0 min 0 min 0 W/m 19,3 km/h (3 Bft) 97,87 %
05.01.2023 04:14 10,9 C 10,0 C 6,7 C 88 % 1017,7 hPa 0,0 l/m 0 min 0 min 0 W/m 16,1 km/h (3 Bft) 100,00 %
05.01.2023 04:16 10,9 C 10,0 C 6,7 C 88 % 1017,8 hPa 0,0 l/m 0 min 0 min 0 W/m 16,1 km/h (3 Bft) 97,87 %
05.01.2023 04:18 10,8 C 10,0 C 6,7 C 88 % 1017,8 hPa 0,0 l/m 0 min 0 min 0 W/m 25,7 km/h (4 Bft) 97,83 %
05.01.2023 04:20 10,8 C 10,0 C 6,7 C 88 % 1017,7 hPa 0,0 l/m 0 min 0 min 0 W/m 19,3 km/h (3 Bft) 97,87 %
05.01.2023 04:22 10,8 C 10,0 C 6,7 C 88 % 1017,8 hPa 0,0 l/m 0 min 0 min 0 W/m 22,5 km/h (4 Bft) 93,62 %
05.01.2023 04:24 10,8 C 10,0 C 6,7 C 88 % 1017,9 hPa 0,0 l/m 0 min 0 min 0 W/m 16,1 km/h (3 Bft) 97,87 %
05.01.2023 04:26 10,8 C 10,0 C 6,7 C 88 % 1017,9 hPa 0,0 l/m 0 min 0 min 0 W/m 25,7 km/h (4 Bft) 97,87 %
05.01.2023 04:28 10,8 C 10,0 C 6,7 C 88 % 1017,7 hPa 0,0 l/m 0 min 0 min 0 W/m 16,1 km/h (3 Bft) 95,74 %
05.01.2023 04:30 10,8 C 10,0 C 6,7 C 88 % 1017,8 hPa 0,0 l/m 0 min 0 min 0 W/m 16,1 km/h (3 Bft) 100,00 %
05.01.2023 04:32 10,8 C 10,0 C 6,7 C 88 % 1017,8 hPa 0,0 l/m 0 min 0 min 0 W/m 25,7 km/h (4 Bft) 97,87 %
05.01.2023 04:34 10,8 C 10,0 C 6,7 C 88 % 1017,9 hPa 0,0 l/m 0 min 0 min 0 W/m 16,1 km/h (3 Bft) 97,87 %
05.01.2023 04:36 10,8 C 10,0 C 6,7 C 88 % 1017,9 hPa 0,0 l/m 0 min 0 min 0 W/m 16,1 km/h (3 Bft) 95,74 %
05.01.2023 04:38 10,8 C 10,0 C 6,7 C 88 % 1017,8 hPa 0,0 l/m 0 min 0 min 0 W/m 16,1 km/h (3 Bft) 97,87 %
05.01.2023 04:40 10,8 C 10,0 C 6,7 C 88 % 1017,9 hPa 0,0 l/m 0 min 0 min 0 W/m 19,3 km/h (3 Bft) 97,87 %
05.01.2023 04:42 10,8 C 10,0 C 6,7 C 88 % 1017,9 hPa 0,0 l/m 0 min 0 min 0 W/m 19,3 km/h (3 Bft) 97,83 %
05.01.2023 04:44 10,8 C 10,0 C 6,7 C 88 % 1017,8 hPa 0,0 l/m 0 min 0 min 0 W/m 16,1 km/h (3 Bft) 97,87 %
05.01.2023 04:46 10,8 C 10,0 C 6,7 C 88 % 1017,9 hPa 0,0 l/m 0 min 0 min 0 W/m 16,1 km/h (3 Bft) 97,87 %
05.01.2023 04:48 10,8 C 10,0 C 6,7 C 88 % 1017,9 hPa 0,0 l/m 0 min 0 min 0 W/m 19,3 km/h (3 Bft) 95,74 %
05.01.2023 04:50 10,8 C 10,0 C 6,7 C 88 % 1017,9 hPa 0,0 l/m 0 min 0 min 0 W/m 19,3 km/h (3 Bft) 95,74 %
05.01.2023 04:52 10,8 C 10,0 C 6,7 C 88 % 1018,0 hPa 0,0 l/m 0 min 0 min 0 W/m 12,9 km/h (3 Bft) 95,74 %
05.01.2023 04:54 10,8 C 10,0 C 6,7 C 88 % 1018,0 hPa 0,0 l/m 0 min 0 min 0 W/m 19,3 km/h (3 Bft) 93,62 %
05.01.2023 04:56 10,8 C 10,0 C 6,7 C 88 % 1018,0 hPa 0,0 l/m 0 min 0 min 0 W/m 12,9 km/h (3 Bft) 93,62 %
05.01.2023 04:58 10,8 C 10,0 C 6,7 C 88 % 1017,9 hPa 0,0 l/m 0 min 0 min 0 W/m 19,3 km/h (3 Bft) 95,74 %
05.01.2023 05:00 10,8 C 10,0 C 6,7 C 88 % 1017,9 hPa 0,0 l/m 0 min 2 min 0 W/m 12,9 km/h (3 Bft) 93,48 %
05.01.2023 05:02 10,8 C 10,0 C 6,7 C 88 % 1018,0 hPa 0,0 l/m 0 min 2 min 0 W/m 16,1 km/h (3 Bft) 95,74 %
05.01.2023 05:04 10,8 C 10,0 C 6,1 C 89 % 1018,2 hPa 0,0 l/m 0 min 2 min 0 W/m 25,7 km/h (4 Bft) 95,74 %
05.01.2023 05:06 10,8 C 10,0 C 6,1 C 89 % 1018,0 hPa 0,0 l/m 0 min 2 min 0 W/m 16,1 km/h (3 Bft) 93,22 %
05.01.2023 05:08 10,7 C 9,4 C 6,1 C 89 % 1018,0 hPa 0,0 l/m 0 min 2 min 0 W/m 29,0 km/h (5 Bft) 97,14 %
05.01.2023 05:10 10,7 C 9,4 C 5,6 C 90 % 1017,9 hPa 0,0 l/m 0 min 2 min 0 W/m 16,1 km/h (3 Bft) 93,62 %
05.01.2023 05:12 10,6 C 9,4 C 5,6 C 90 % 1017,9 hPa 0,0 l/m 0 min 2 min 0 W/m 29,0 km/h (5 Bft) 97,87 %
05.01.2023 05:14 10,6 C 9,4 C 5,6 C 90 % 1017,9 hPa 0,0 l/m 0 min 0 min 0 W/m 19,3 km/h (3 Bft) 95,65 %
05.01.2023 05:16 10,5 C 9,4 C 5,6 C 91 % 1017,9 hPa 0,0 l/m 0 min 0 min 0 W/m 16,1 km/h (3 Bft) 95,74 %
05.01.2023 05:18 10,4 C 9,4 C 5,6 C 91 % 1017,9 hPa 0,0 l/m 0 min 0 min 0 W/m 19,3 km/h (3 Bft) 97,87 %
05.01.2023 05:20 10,4 C 9,4 C 5,6 C 91 % 1018,1 hPa 0,0 l/m 0 min 0 min 0 W/m 22,5 km/h (4 Bft) 97,87 %
05.01.2023 05:22 10,4 C 9,4 C 5,6 C 91 % 1017,9 hPa 0,0 l/m 0 min 0 min 0 W/m 12,9 km/h (3 Bft) 55,56 %
05.01.2023 05:24 10,4 C 9,4 C 5,6 C 91 % 1017,9 hPa 0,0 l/m 0 min 0 min 0 W/m 19,3 km/h (3 Bft) 100,00 %
05.01.2023 05:26 10,3 C 9,4 C 5,6 C 92 % 1017,9 hPa 0,0 l/m 0 min 0 min 0 W/m 12,9 km/h (3 Bft) 100,00 %
05.01.2023 05:28 10,3 C 9,4 C 5,6 C 92 % 1017,9 hPa 0,0 l/m 0 min 0 min 0 W/m 16,1 km/h (3 Bft) 97,87 %
05.01.2023 05:30 10,3 C 9,4 C 5,6 C 92 % 1017,9 hPa 0,0 l/m 0 min 0 min 0 W/m 16,1 km/h (3 Bft) 97,87 %
05.01.2023 05:32 10,3 C 9,4 C 5,6 C 92 % 1018,0 hPa 0,0 l/m 0 min 0 min 0 W/m 19,3 km/h (3 Bft) 97,87 %
05.01.2023 05:34 10,3 C 9,4 C 6,1 C 92 % 1017,9 hPa 0,0 l/m 0 min 0 min 0 W/m 16,1 km/h (3 Bft) 100,00 %
05.01.2023 05:36 10,3 C 9,4 C 6,1 C 92 % 1018,2 hPa 0,0 l/m 0 min 0 min 0 W/m 22,5 km/h (4 Bft) 97,87 %
05.01.2023 05:38 10,3 C 9,4 C 6,1 C 92 % 1018,0 hPa 0,0 l/m 0 min 0 min 0 W/m 16,1 km/h (3 Bft) 100,00 %
05.01.2023 05:40 10,3 C 9,4 C 6,1 C 92 % 1018,1 hPa 0,0 l/m 0 min 0 min 0 W/m 16,1 km/h (3 Bft) 100,00 %
05.01.2023 05:42 10,3 C 9,4 C 6,1 C 92 % 1018,1 hPa 0,0 l/m 0 min 0 min 0 W/m 25,7 km/h (4 Bft) 100,00 %
05.01.2023 05:44 10,3 C 9,4 C 6,1 C 92 % 1018,2 hPa 0,0 l/m 0 min 2 min 0 W/m 16,1 km/h (3 Bft) 100,00 %
05.01.2023 05:46 10,3 C 9,4 C 6,1 C 92 % 1018,2 hPa 0,2 l/m 0 min 2 min 0 W/m 19,3 km/h (3 Bft) 100,00 %
05.01.2023 05:48 10,3 C 9,4 C 6,1 C 92 % 1018,2 hPa 0,0 l/m 0 min 2 min 0 W/m 22,5 km/h (4 Bft) 100,00 %
05.01.2023 05:50 10,3 C 9,4 C 6,1 C 92 % 1018,1 hPa 0,0 l/m 0 min 2 min 0 W/m 19,3 km/h (3 Bft) 97,87 %
05.01.2023 05:52 10,3 C 9,4 C 6,1 C 92 % 1018,2 hPa 0,0 l/m 0 min 0 min 0 W/m 19,3 km/h (3 Bft) 100,00 %
05.01.2023 05:54 10,3 C 9,4 C 6,1 C 92 % 1018,0 hPa 0,0 l/m 0 min 2 min 0 W/m 12,9 km/h (3 Bft) 100,00 %
05.01.2023 05:56 10,3 C 9,4 C 6,1 C 92 % 1018,3 hPa 0,0 l/m 0 min 0 min 0 W/m 16,1 km/h (3 Bft) 100,00 %
05.01.2023 05:58 10,2 C 9,4 C 6,1 C 92 % 1018,1 hPa 0,0 l/m 0 min 0 min 0 W/m 12,9 km/h (3 Bft) 100,00 %
05.01.2023 06:00 10,2 C 9,4 C 6,1 C 92 % 1018,2 hPa 0,0 l/m 0 min 0 min 0 W/m 12,9 km/h (3 Bft) 100,00 %
05.01.2023 06:02 10,2 C 9,4 C 6,1 C 92 % 1018,1 hPa 0,0 l/m 0 min 0 min 0 W/m 25,7 km/h (4 Bft) 97,87 %
05.01.2023 06:04 10,2 C 9,4 C 6,1 C 92 % 1018,2 hPa 0,0 l/m 0 min 0 min 0 W/m 19,3 km/h (3 Bft) 97,87 %
05.01.2023 06:08 10,2 C 9,4 C 6,1 C 92 % 1018,2 hPa 0,0 l/m 0 min 0 min 0 W/m 22,5 km/h (4 Bft) 98,78 %
05.01.2023 06:10 10,2 C 9,4 C 6,1 C 92 % 1018,2 hPa 0,0 l/m 0 min 0 min 0 W/m 16,1 km/h (3 Bft) 97,87 %
05.01.2023 06:12 10,2 C 9,4 C 6,1 C 92 % 1018,1 hPa 0,0 l/m 0 min 0 min 0 W/m 19,3 km/h (3 Bft) 100,00 %
05.01.2023 06:14 10,2 C 9,4 C 6,1 C 92 % 1018,2 hPa 0,0 l/m 0 min 0 min 0 W/m 16,1 km/h (3 Bft) 97,87 %
05.01.2023 06:16 10,2 C 9,4 C 6,1 C 92 % 1018,2 hPa 0,0 l/m 0 min 0 min 0 W/m 12,9 km/h (3 Bft) 100,00 %
05.01.2023 06:18 10,2 C 9,4 C 6,1 C 92 % 1018,2 hPa 0,0 l/m 0 min 0 min 0 W/m 12,9 km/h (3 Bft) 97,87 %
05.01.2023 06:20 10,2 C 9,4 C 6,1 C 92 % 1018,2 hPa 0,0 l/m 0 min 2 min 0 W/m 16,1 km/h (3 Bft) 97,87 %
05.01.2023 06:22 10,2 C 9,4 C 6,1 C 92 % 1018,2 hPa 0,0 l/m 0 min 2 min 0 W/m 19,3 km/h (3 Bft) 97,87 %
05.01.2023 06:24 10,2 C 9,4 C 6,1 C 92 % 1018,2 hPa 0,0 l/m 0 min 2 min 0 W/m 16,1 km/h (3 Bft) 97,87 %
05.01.2023 06:26 10,2 C 9,4 C 6,7 C 92 % 1018,3 hPa 0,0 l/m 0 min 2 min 0 W/m 16,1 km/h (3 Bft) 97,87 %
05.01.2023 06:28 10,2 C 9,4 C 6,7 C 92 % 1018,3 hPa 0,0 l/m 0 min 0 min 0 W/m 19,3 km/h (3 Bft) 97,87 %
05.01.2023 06:30 10,2 C 9,4 C 6,1 C 92 % 1018,3 hPa 0,0 l/m 0 min 0 min 0 W/m 19,3 km/h (3 Bft) 97,83 %
05.01.2023 06:32 10,2 C 9,4 C 6,7 C 92 % 1018,3 hPa 0,0 l/m 0 min 0 min 0 W/m 19,3 km/h (3 Bft) 95,74 %
05.01.2023 06:34 10,2 C 9,4 C 6,7 C 92 % 1018,3 hPa 0,0 l/m 0 min 0 min 0 W/m 16,1 km/h (3 Bft) 95,74 %
05.01.2023 06:36 10,2 C 9,4 C 6,1 C 92 % 1018,3 hPa 0,0 l/m 0 min 0 min 0 W/m 19,3 km/h (3 Bft) 97,87 %
05.01.2023 06:38 10,2 C 9,4 C 6,1 C 92 % 1018,3 hPa 0,0 l/m 0 min 0 min 0 W/m 16,1 km/h (3 Bft) 95,74 %
05.01.2023 06:40 10,2 C 9,4 C 6,1 C 92 % 1018,3 hPa 0,0 l/m 0 min 0 min 0 W/m 12,9 km/h (3 Bft) 93,62 %
05.01.2023 06:42 10,2 C 9,4 C 6,1 C 92 % 1018,4 hPa 0,0 l/m 0 min 0 min 0 W/m 12,9 km/h (3 Bft) 95,65 %
05.01.2023 06:44 10,2 C 9,4 C 6,1 C 92 % 1018,4 hPa 0,0 l/m 0 min 0 min 0 W/m 12,9 km/h (3 Bft) 95,74 %
05.01.2023 06:46 10,2 C 9,4 C 6,1 C 92 % 1018,5 hPa 0,0 l/m 0 min 0 min 0 W/m 16,1 km/h (3 Bft) 95,74 %
05.01.2023 06:48 10,2 C 9,4 C 6,1 C 92 % 1018,5 hPa 0,0 l/m 0 min 0 min 0 W/m 12,9 km/h (3 Bft) 95,74 %
05.01.2023 06:50 10,2 C 9,4 C 6,1 C 92 % 1018,6 hPa 0,0 l/m 0 min 0 min 0 W/m 22,5 km/h (4 Bft) 93,62 %
05.01.2023 06:52 10,2 C 9,4 C 6,1 C 92 % 1018,6 hPa 0,0 l/m 0 min 0 min 0 W/m 16,1 km/h (3 Bft) 95,74 %
05.01.2023 06:54 10,2 C 9,4 C 6,1 C 92 % 1018,6 hPa 0,0 l/m 0 min 0 min 0 W/m 16,1 km/h (3 Bft) 95,74 %
05.01.2023 06:56 10,2 C 9,4 C 6,1 C 93 % 1018,7 hPa 0,0 l/m 0 min 0 min 0 W/m 6,4 km/h (2 Bft) 95,65 %
05.01.2023 06:58 10,1 C 9,4 C 6,1 C 93 % 1018,7 hPa 0,0 l/m 0 min 0 min 0 W/m 38,6 km/h (5 Bft) 95,74 %
05.01.2023 07:00 10,1 C 9,4 C 6,1 C 93 % 1018,7 hPa 0,0 l/m 0 min 0 min 0 W/m 19,3 km/h (3 Bft) 95,74 %
05.01.2023 07:02 10,1 C 9,4 C 6,1 C 93 % 1018,8 hPa 0,0 l/m 0 min 0 min 0 W/m 16,1 km/h (3 Bft) 91,49 %
05.01.2023 07:04 10,1 C 9,4 C 6,1 C 93 % 1018,7 hPa 0,0 l/m 0 min 0 min 0 W/m 16,1 km/h (3 Bft) 100,00 %
05.01.2023 07:06 10,1 C 9,4 C 6,1 C 93 % 1018,7 hPa 0,0 l/m 0 min 0 min 0 W/m 16,1 km/h (3 Bft) 96,55 %
05.01.2023 07:08 10,1 C 9,4 C 6,1 C 93 % 1018,8 hPa 0,0 l/m 0 min 0 min 0 W/m 9,7 km/h (2 Bft) 100,00 %
05.01.2023 07:10 10,1 C 9,4 C 6,1 C 93 % 1018,8 hPa 0,0 l/m 0 min 0 min 0 W/m 16,1 km/h (3 Bft) 97,87 %
05.01.2023 07:12 10,1 C 9,4 C 6,1 C 93 % 1018,7 hPa 0,0 l/m 0 min 0 min 0 W/m 12,9 km/h (3 Bft) 100,00 %
05.01.2023 07:14 10,1 C 9,4 C 6,1 C 93 % 1018,8 hPa 0,0 l/m 0 min 0 min 0 W/m 12,9 km/h (3 Bft) 100,00 %
05.01.2023 07:16 10,1 C 9,4 C 6,1 C 93 % 1018,9 hPa 0,0 l/m 0 min 0 min 0 W/m 19,3 km/h (3 Bft) 100,00 %
05.01.2023 07:18 10,1 C 9,4 C 6,1 C 93 % 1018,9 hPa 0,0 l/m 0 min 0 min 0 W/m 9,7 km/h (2 Bft) 100,00 %
05.01.2023 07:20 10,1 C 9,4 C 6,1 C 93 % 1018,9 hPa 0,0 l/m 0 min 0 min 0 W/m 12,9 km/h (3 Bft) 100,00 %
05.01.2023 07:22 10,1 C 9,4 C 6,1 C 93 % 1018,9 hPa 0,0 l/m 0 min 0 min 0 W/m 19,3 km/h (3 Bft) 100,00 %
05.01.2023 07:24 10,1 C 9,4 C 6,1 C 93 % 1018,9 hPa 0,0 l/m 0 min 0 min 0 W/m 12,9 km/h (3 Bft) 100,00 %
05.01.2023 07:26 10,1 C 9,4 C 6,1 C 93 % 1018,9 hPa 0,0 l/m 0 min 2 min 0 W/m 19,3 km/h (3 Bft) 97,87 %
05.01.2023 07:28 10,1 C 9,4 C 6,1 C 93 % 1018,9 hPa 0,0 l/m 0 min 2 min 0 W/m 19,3 km/h (3 Bft) 100,00 %
05.01.2023 07:30 10,1 C 9,4 C 6,1 C 93 % 1018,9 hPa 0,0 l/m 0 min 2 min 0 W/m 16,1 km/h (3 Bft) 95,74 %
05.01.2023 07:32 10,1 C 9,4 C 6,1 C 93 % 1019,0 hPa 0,0 l/m 0 min 2 min 0 W/m 12,9 km/h (3 Bft) 95,74 %
05.01.2023 07:34 10,0 C 9,4 C 6,1 C 93 % 1018,9 hPa 0,0 l/m 0 min 2 min 0 W/m 12,9 km/h (3 Bft) 97,83 %
05.01.2023 07:36 10,0 C 9,4 C 6,1 C 93 % 1019,0 hPa 0,0 l/m 0 min 2 min 0 W/m 12,9 km/h (3 Bft) 97,87 %
05.01.2023 07:38 10,0 C 9,4 C 6,1 C 94 % 1019,0 hPa 0,0 l/m 0 min 2 min 0 W/m 16,1 km/h (3 Bft) 95,74 %
05.01.2023 07:40 10,0 C 9,4 C 6,1 C 94 % 1019,1 hPa 0,0 l/m 0 min 2 min 0 W/m 16,1 km/h (3 Bft) 97,87 %
05.01.2023 07:42 10,0 C 9,4 C 6,1 C 94 % 1019,0 hPa 0,0 l/m 0 min 0 min 0 W/m 12,9 km/h (3 Bft) 95,74 %
05.01.2023 07:44 9,9 C 9,4 C 6,1 C 94 % 1019,1 hPa 0,0 l/m 0 min 0 min 0 W/m 16,1 km/h (3 Bft) 97,87 %
05.01.2023 07:46 9,9 C 8,9 C 6,1 C 94 % 1019,0 hPa 0,0 l/m 0 min 0 min 0 W/m 12,9 km/h (3 Bft) 95,74 %
05.01.2023 07:48 9,9 C 9,4 C 6,1 C 94 % 1019,1 hPa 0,0 l/m 0 min 0 min 0 W/m 16,1 km/h (3 Bft) 95,65 %
05.01.2023 07:50 9,9 C 9,4 C 6,1 C 94 % 1019,1 hPa 0,0 l/m 0 min 0 min 0 W/m 19,3 km/h (3 Bft) 97,87 %
05.01.2023 07:52 10,0 C 9,4 C 6,1 C 94 % 1019,1 hPa 0,0 l/m 0 min 0 min 0 W/m 12,9 km/h (3 Bft) 97,87 %
05.01.2023 07:54 10,0 C 9,4 C 6,1 C 94 % 1019,1 hPa 0,0 l/m 0 min 0 min 0 W/m 25,7 km/h (4 Bft) 97,87 %
05.01.2023 07:56 10,0 C 9,4 C 6,1 C 94 % 1019,2 hPa 0,0 l/m 0 min 0 min 0 W/m 12,9 km/h (3 Bft) 97,87 %
05.01.2023 07:58 10,0 C 9,4 C 6,1 C 94 % 1019,0 hPa 0,0 l/m 0 min 0 min 0 W/m 12,9 km/h (3 Bft) 97,87 %
05.01.2023 08:00 10,0 C 9,4 C 6,1 C 93 % 1019,0 hPa 0,0 l/m 0 min 2 min 0 W/m 16,1 km/h (3 Bft) 97,87 %
05.01.2023 08:02 10,0 C 9,4 C 6,1 C 93 % 1019,1 hPa 0,0 l/m 0 min 0 min 0 W/m 22,5 km/h (4 Bft) 97,83 %
05.01.2023 08:04 10,1 C 9,4 C 6,1 C 93 % 1019,1 hPa 0,0 l/m 0 min 0 min 0 W/m 19,3 km/h (3 Bft) 97,87 %
05.01.2023 08:06 10,1 C 9,4 C 6,1 C 93 % 1019,2 hPa 0,0 l/m 0 min 2 min 0 W/m 22,5 km/h (4 Bft) 96,61 %
05.01.2023 08:08 10,1 C 9,4 C 6,1 C 93 % 1019,2 hPa 0,0 l/m 0 min 2 min 0 W/m 16,1 km/h (3 Bft) 97,14 %
05.01.2023 08:10 10,1 C 9,4 C 6,1 C 93 % 1019,2 hPa 0,0 l/m 0 min 2 min 0 W/m 12,9 km/h (3 Bft) 97,87 %
05.01.2023 08:12 10,1 C 9,4 C 6,1 C 93 % 1019,2 hPa 0,0 l/m 0 min 2 min 0 W/m 16,1 km/h (3 Bft) 97,87 %
05.01.2023 08:14 10,1 C 9,4 C 6,1 C 93 % 1019,3 hPa 0,0 l/m 0 min 2 min 0 W/m 12,9 km/h (3 Bft) 98,15 %
05.01.2023 08:16 10,1 C 9,4 C 6,1 C 93 % 1019,3 hPa 0,0 l/m 0 min 2 min 0 W/m 9,7 km/h (2 Bft) 97,83 %
05.01.2023 08:18 10,1 C 9,4 C 6,1 C 93 % 1019,3 hPa 0,0 l/m 0 min 0 min 0 W/m 16,1 km/h (3 Bft) 97,87 %
05.01.2023 08:20 10,1 C 9,4 C 6,1 C 93 % 1019,4 hPa 0,0 l/m 0 min 0 min 0 W/m 12,9 km/h (3 Bft) 95,74 %
05.01.2023 08:22 10,1 C 9,4 C 6,1 C 93 % 1019,4 hPa 0,0 l/m 0 min 0 min 0 W/m 9,7 km/h (2 Bft) 95,74 %
05.01.2023 08:24 10,1 C 9,4 C 6,1 C 93 % 1019,4 hPa 0,0 l/m 0 min 2 min 0 W/m 16,1 km/h (3 Bft) 100,00 %
05.01.2023 08:26 10,1 C 9,4 C 6,7 C 93 % 1019,4 hPa 0,0 l/m 0 min 0 min 0 W/m 16,1 km/h (3 Bft) 100,00 %
05.01.2023 08:28 10,1 C 9,4 C 6,7 C 93 % 1019,5 hPa 0,0 l/m 0 min 2 min 0 W/m 19,3 km/h (3 Bft) 97,83 %
05.01.2023 08:30 10,1 C 9,4 C 6,1 C 93 % 1019,4 hPa 0,0 l/m 0 min 2 min 0 W/m 12,9 km/h (3 Bft) 100,00 %
05.01.2023 08:32 10,1 C 9,4 C 6,1 C 93 % 1019,5 hPa 0,0 l/m 0 min 0 min 0 W/m 12,9 km/h (3 Bft) 95,74 %
05.01.2023 08:34 10,1 C 9,4 C 6,1 C 93 % 1019,5 hPa 0,0 l/m 0 min 2 min 0 W/m 22,5 km/h (4 Bft) 93,62 %
05.01.2023 08:36 10,1 C 9,4 C 6,1 C 93 % 1019,4 hPa 0,0 l/m 0 min 2 min 0 W/m 16,1 km/h (3 Bft) 95,74 %
05.01.2023 08:38 10,1 C 9,4 C 6,1 C 93 % 1019,4 hPa 0,0 l/m 0 min 0 min 0 W/m 16,1 km/h (3 Bft) 95,74 %
05.01.2023 08:40 10,1 C 9,4 C 6,1 C 93 % 1019,4 hPa 0,0 l/m 0 min 2 min 0 W/m 16,1 km/h (3 Bft) 95,74 %
05.01.2023 08:42 10,1 C 9,4 C 6,1 C 93 % 1019,4 hPa 0,0 l/m 0 min 0 min 0 W/m 9,7 km/h (2 Bft) 97,83 %
05.01.2023 08:44 10,1 C 9,4 C 6,1 C 93 % 1019,3 hPa 0,0 l/m 0 min 2 min 0 W/m 12,9 km/h (3 Bft) 97,87 %
05.01.2023 08:46 10,1 C 9,4 C 6,1 C 93 % 1019,3 hPa 0,0 l/m 0 min 2 min 3 W/m 12,9 km/h (3 Bft) 95,74 %
05.01.2023 08:48 10,1 C 9,4 C 6,1 C 93 % 1019,5 hPa 0,0 l/m 0 min 0 min 5 W/m 12,9 km/h (3 Bft) 97,87 %
05.01.2023 08:50 10,1 C 9,4 C 6,1 C 93 % 1019,4 hPa 0,0 l/m 0 min 2 min 0 W/m 22,5 km/h (4 Bft) 95,74 %
05.01.2023 08:52 10,1 C 9,4 C 6,1 C 93 % 1019,6 hPa 0,0 l/m 0 min 2 min 0 W/m 19,3 km/h (3 Bft) 95,74 %
05.01.2023 08:54 10,1 C 9,4 C 5,6 C 93 % 1019,6 hPa 0,2 l/m 0 min 2 min 0 W/m 12,9 km/h (3 Bft) 95,74 %
05.01.2023 08:56 10,1 C 9,4 C 5,6 C 93 % 1019,6 hPa 0,0 l/m 0 min 2 min 3 W/m 16,1 km/h (3 Bft) 95,65 %
05.01.2023 08:58 10,1 C 8,9 C 5,6 C 93 % 1019,6 hPa 0,0 l/m 0 min 2 min 5 W/m 16,1 km/h (3 Bft) 50,00 %
05.01.2023 09:00 10,1 C 8,9 C 5,6 C 93 % 1019,7 hPa 0,2 l/m 0 min 2 min 5 W/m 9,7 km/h (2 Bft) 95,74 %
05.01.2023 09:02 10,1 C 8,9 C 5,6 C 94 % 1019,7 hPa 0,0 l/m 0 min 0 min 7 W/m 12,9 km/h (3 Bft) 93,62 %
05.01.2023 09:04 10,0 C 8,9 C 5,6 C 94 % 1019,7 hPa 0,0 l/m 0 min 0 min 9 W/m 19,3 km/h (3 Bft) 95,74 %
05.01.2023 09:06 10,0 C 8,9 C 5,6 C 94 % 1019,8 hPa 0,0 l/m 0 min 0 min 15 W/m 19,3 km/h (3 Bft) 95,74 %
05.01.2023 09:08 10,0 C 9,4 C 5,6 C 94 % 1019,8 hPa 0,0 l/m 0 min 0 min 17 W/m 6,4 km/h (2 Bft) 97,87 %
05.01.2023 09:10 10,0 C 9,4 C 5,6 C 94 % 1019,8 hPa 0,0 l/m 0 min 2 min 13 W/m 16,1 km/h (3 Bft) 97,83 %
05.01.2023 09:12 10,0 C 9,4 C 5,6 C 94 % 1019,8 hPa 0,0 l/m 0 min 2 min 15 W/m 9,7 km/h (2 Bft) 97,87 %
05.01.2023 09:14 9,9 C 9,4 C 5,6 C 94 % 1019,8 hPa 0,0 l/m 0 min 2 min 16 W/m 19,3 km/h (3 Bft) 95,74 %
05.01.2023 09:16 9,9 C 9,4 C 5,6 C 94 % 1019,9 hPa 0,0 l/m 0 min 2 min 15 W/m 12,9 km/h (3 Bft) 97,87 %
05.01.2023 09:18 9,9 C 9,4 C 5,6 C 94 % 1019,8 hPa 0,0 l/m 0 min 2 min 13 W/m 12,9 km/h (3 Bft) 100,00 %
05.01.2023 09:20 9,9 C 9,4 C 5,6 C 94 % 1020,0 hPa 0,0 l/m 0 min 2 min 12 W/m 12,9 km/h (3 Bft) 95,74 %
05.01.2023 09:22 9,9 C 9,4 C 5,6 C 94 % 1020,0 hPa 0,0 l/m 0 min 0 min 11 W/m 19,3 km/h (3 Bft) 97,83 %
05.01.2023 09:24 9,9 C 9,4 C 5,6 C 94 % 1019,9 hPa 0,0 l/m 0 min 0 min 11 W/m 16,1 km/h (3 Bft) 97,87 %
05.01.2023 09:26 10,0 C 9,4 C 5,6 C 94 % 1019,9 hPa 0,0 l/m 0 min 0 min 12 W/m 16,1 km/h (3 Bft) 97,87 %
05.01.2023 09:28 10,0 C 9,4 C 5,6 C 94 % 1019,9 hPa 0,0 l/m 0 min 0 min 12 W/m 16,1 km/h (3 Bft) 97,87 %
05.01.2023 09:30 10,0 C 9,4 C 5,6 C 94 % 1020,0 hPa 0,0 l/m 0 min 0 min 12 W/m 12,9 km/h (3 Bft) 96,00 %
05.01.2023 09:32 10,0 C 9,4 C 5,6 C 94 % 1020,0 hPa 0,0 l/m 0 min 0 min 13 W/m 19,3 km/h (3 Bft) 97,92 %
05.01.2023 09:34 10,0 C 9,4 C 5,6 C 94 % 1019,9 hPa 0,0 l/m 0 min 0 min 16 W/m 19,3 km/h (3 Bft) 100,00 %
05.01.2023 09:36 10,0 C 9,4 C 5,6 C 94 % 1019,9 hPa 0,0 l/m 0 min 0 min 25 W/m 16,1 km/h (3 Bft) 98,28 %
05.01.2023 09:38 10,0 C 9,4 C 5,6 C 94 % 1020,0 hPa 0,0 l/m 0 min 0 min 38 W/m 12,9 km/h (3 Bft) 100,00 %
05.01.2023 09:40 10,0 C 9,4 C 5,6 C 94 % 1020,0 hPa 0,0 l/m 0 min 0 min 40 W/m 16,1 km/h (3 Bft) 100,00 %
05.01.2023 09:42 10,0 C 9,4 C 5,6 C 94 % 1020,0 hPa 0,0 l/m 0 min 0 min 40 W/m 16,1 km/h (3 Bft) 100,00 %
05.01.2023 09:44 10,1 C 9,4 C 5,6 C 94 % 1020,1 hPa 0,0 l/m 0 min 0 min 39 W/m 12,9 km/h (3 Bft) 100,00 %
05.01.2023 09:46 10,1 C 9,4 C 5,6 C 94 % 1020,1 hPa 0,0 l/m 0 min 0 min 36 W/m 19,3 km/h (3 Bft) 100,00 %
05.01.2023 09:48 10,1 C 9,4 C 5,6 C 94 % 1020,2 hPa 0,0 l/m 0 min 0 min 41 W/m 19,3 km/h (3 Bft) 97,83 %
05.01.2023 09:50 10,1 C 9,4 C 5,6 C 94 % 1020,2 hPa 0,0 l/m 0 min 0 min 42 W/m 16,1 km/h (3 Bft) 100,00 %
05.01.2023 09:52 10,1 C 9,4 C 6,1 C 93 % 1020,3 hPa 0,0 l/m 0 min 0 min 44 W/m 6,4 km/h (2 Bft) 100,00 %
05.01.2023 09:54 10,1 C 9,4 C 6,1 C 93 % 1020,2 hPa 0,0 l/m 0 min 0 min 41 W/m 16,1 km/h (3 Bft) 100,00 %
05.01.2023 09:56 10,1 C 9,4 C 6,1 C 93 % 1020,2 hPa 0,0 l/m 0 min 0 min 44 W/m 12,9 km/h (3 Bft) 100,00 %
05.01.2023 09:58 10,1 C 10,0 C 6,1 C 93 % 1020,3 hPa 0,0 l/m 0 min 0 min 56 W/m 22,5 km/h (4 Bft) 100,00 %
05.01.2023 10:00 10,1 C 10,0 C 6,1 C 93 % 1020,3 hPa 0,0 l/m 0 min 0 min 56 W/m 16,1 km/h (3 Bft) 100,00 %
05.01.2023 10:02 10,1 C 10,0 C 6,1 C 93 % 1020,3 hPa 0,0 l/m 0 min 0 min 55 W/m 16,1 km/h (3 Bft) 100,00 %
05.01.2023 10:04 10,2 C 10,0 C 6,1 C 93 % 1020,3 hPa 0,0 l/m 0 min 0 min 57 W/m 16,1 km/h (3 Bft) 100,00 %
05.01.2023 10:06 10,2 C 10,0 C 6,1 C 93 % 1020,4 hPa 0,0 l/m 0 min 0 min 64 W/m 16,1 km/h (3 Bft) 100,00 %
05.01.2023 10:08 10,2 C 10,0 C 6,1 C 93 % 1020,4 hPa 0,0 l/m 0 min 0 min 66 W/m 22,5 km/h (4 Bft) 97,87 %
05.01.2023 10:10 10,2 C 10,0 C 6,1 C 93 % 1020,5 hPa 0,0 l/m 0 min 0 min 46 W/m 12,9 km/h (3 Bft) 100,00 %
05.01.2023 10:12 10,3 C 10,0 C 6,1 C 93 % 1020,5 hPa 0,0 l/m 0 min 0 min 40 W/m 16,1 km/h (3 Bft) 97,87 %
05.01.2023 10:14 10,3 C 10,0 C 6,1 C 93 % 1020,5 hPa 0,0 l/m 0 min 0 min 44 W/m 19,3 km/h (3 Bft) 95,65 %
05.01.2023 10:16 10,3 C 10,0 C 6,1 C 93 % 1020,5 hPa 0,0 l/m 0 min 0 min 47 W/m 16,1 km/h (3 Bft) 100,00 %
05.01.2023 10:18 10,3 C 10,0 C 6,1 C 93 % 1020,5 hPa 0,0 l/m 0 min 0 min 49 W/m 12,9 km/h (3 Bft) 100,00 %
05.01.2023 10:20 10,3 C 10,0 C 6,1 C 93 % 1020,5 hPa 0,0 l/m 0 min 0 min 56 W/m 19,3 km/h (3 Bft) 97,87 %
05.01.2023 10:22 10,3 C 10,0 C 6,1 C 92 % 1020,6 hPa 0,0 l/m 0 min 0 min 64 W/m 16,1 km/h (3 Bft) 100,00 %
05.01.2023 10:24 10,3 C 10,0 C 6,1 C 92 % 1020,5 hPa 0,0 l/m 0 min 0 min 64 W/m 12,9 km/h (3 Bft) 100,00 %
05.01.2023 10:26 10,4 C 10,0 C 6,1 C 92 % 1020,5 hPa 0,0 l/m 0 min 0 min 68 W/m 16,1 km/h (3 Bft) 97,92 %
05.01.2023 10:28 10,4 C 10,0 C 6,1 C 92 % 1020,6 hPa 0,0 l/m 0 min 0 min 65 W/m 16,1 km/h (3 Bft) 95,74 %
05.01.2023 10:30 10,4 C 10,0 C 6,1 C 92 % 1020,6 hPa 0,0 l/m 0 min 0 min 70 W/m 12,9 km/h (3 Bft) 95,65 %
05.01.2023 10:32 10,4 C 10,0 C 6,1 C 92 % 1020,6 hPa 0,0 l/m 0 min 0 min 53 W/m 9,7 km/h (2 Bft) 95,74 %
05.01.2023 10:34 10,4 C 10,0 C 6,1 C 92 % 1020,6 hPa 0,0 l/m 0 min 0 min 54 W/m 12,9 km/h (3 Bft) 89,36 %
05.01.2023 10:36 10,4 C 10,0 C 6,1 C 92 % 1020,7 hPa 0,0 l/m 0 min 0 min 62 W/m 16,1 km/h (3 Bft) 95,74 %
05.01.2023 10:38 10,4 C 10,0 C 6,1 C 92 % 1020,7 hPa 0,0 l/m 0 min 0 min 67 W/m 16,1 km/h (3 Bft) 93,62 %
05.01.2023 10:40 10,5 C 10,0 C 6,1 C 92 % 1020,8 hPa 0,0 l/m 0 min 0 min 76 W/m 12,9 km/h (3 Bft) 93,62 %
05.01.2023 10:42 10,5 C 10,0 C 6,7 C 92 % 1020,8 hPa 0,0 l/m 0 min 0 min 78 W/m 12,9 km/h (3 Bft) 93,48 %
05.01.2023 10:44 10,5 C 10,6 C 6,7 C 92 % 1020,8 hPa 0,0 l/m 0 min 0 min 74 W/m 12,9 km/h (3 Bft) 95,74 %
05.01.2023 10:46 10,6 C 10,6 C 6,7 C 92 % 1020,8 hPa 0,0 l/m 0 min 0 min 65 W/m 12,9 km/h (3 Bft) 95,74 %
05.01.2023 10:48 10,6 C 10,0 C 6,7 C 91 % 1020,9 hPa 0,0 l/m 0 min 0 min 63 W/m 12,9 km/h (3 Bft) 95,74 %
05.01.2023 10:50 10,6 C 10,6 C 6,7 C 91 % 1020,9 hPa 0,0 l/m 0 min 0 min 85 W/m 12,9 km/h (3 Bft) 91,49 %
05.01.2023 10:52 10,6 C 10,6 C 6,7 C 91 % 1021,0 hPa 0,0 l/m 0 min 0 min 83 W/m 6,4 km/h (2 Bft) 93,75 %
05.01.2023 10:54 10,6 C 10,6 C 6,7 C 91 % 1021,0 hPa 0,0 l/m 0 min 0 min 73 W/m 12,9 km/h (3 Bft) 93,62 %
05.01.2023 10:56 10,6 C 10,6 C 6,7 C 91 % 1021,1 hPa 0,0 l/m 0 min 0 min 63 W/m 12,9 km/h (3 Bft) 93,62 %
05.01.2023 10:58 10,6 C 10,0 C 6,7 C 91 % 1021,1 hPa 0,0 l/m 0 min 0 min 56 W/m 19,3 km/h (3 Bft) 95,74 %
05.01.2023 11:00 10,6 C 10,0 C 6,7 C 91 % 1021,0 hPa 0,0 l/m 0 min 0 min 48 W/m 16,1 km/h (3 Bft) 97,87 %
05.01.2023 11:02 10,6 C 10,0 C 6,7 C 91 % 1021,0 hPa 0,0 l/m 0 min 0 min 48 W/m 19,3 km/h (3 Bft) 95,74 %
05.01.2023 11:04 10,6 C 10,0 C 7,2 C 91 % 1021,0 hPa 0,0 l/m 0 min 0 min 45 W/m 16,1 km/h (3 Bft) 95,74 %
05.01.2023 11:06 10,6 C 10,0 C 7,2 C 91 % 1021,1 hPa 0,0 l/m 0 min 0 min 52 W/m 16,1 km/h (3 Bft) 97,83 %
05.01.2023 11:08 10,6 C 10,0 C 7,2 C 91 % 1021,2 hPa 0,0 l/m 0 min 0 min 55 W/m 9,7 km/h (2 Bft) 95,74 %
05.01.2023 11:10 10,6 C 10,0 C 7,2 C 91 % 1021,2 hPa 0,0 l/m 0 min 0 min 55 W/m 6,4 km/h (2 Bft) 97,87 %
05.01.2023 11:12 10,6 C 10,0 C 7,2 C 91 % 1021,1 hPa 0,0 l/m 0 min 0 min 56 W/m 9,7 km/h (2 Bft) 95,74 %
05.01.2023 11:14 10,6 C 10,0 C 7,2 C 91 % 1021,1 hPa 0,0 l/m 0 min 0 min 58 W/m 12,9 km/h (3 Bft) 93,62 %
05.01.2023 11:16 10,6 C 10,0 C 7,2 C 91 % 1021,2 hPa 0,0 l/m 0 min 0 min 51 W/m 12,9 km/h (3 Bft) 95,74 %
05.01.2023 11:18 10,6 C 10,0 C 7,2 C 91 % 1021,2 hPa 0,0 l/m 0 min 0 min 55 W/m 9,7 km/h (2 Bft) 95,65 %
05.01.2023 11:20 10,6 C 10,0 C 7,2 C 91 % 1021,2 hPa 0,0 l/m 0 min 0 min 54 W/m 16,1 km/h (3 Bft) 93,62 %
05.01.2023 11:22 10,7 C 10,0 C 7,2 C 91 % 1021,1 hPa 0,0 l/m 0 min 0 min 71 W/m 16,1 km/h (3 Bft) 95,74 %
05.01.2023 11:24 10,7 C 10,6 C 7,2 C 91 % 1021,1 hPa 0,0 l/m 0 min 0 min 90 W/m 12,9 km/h (3 Bft) 97,87 %
05.01.2023 11:26 10,7 C 10,6 C 7,2 C 91 % 1021,1 hPa 0,0 l/m 0 min 0 min 77 W/m 19,3 km/h (3 Bft) 95,74 %
05.01.2023 11:28 10,7 C 10,6 C 7,2 C 91 % 1021,2 hPa 0,0 l/m 0 min 0 min 57 W/m 12,9 km/h (3 Bft) 95,74 %
05.01.2023 11:30 10,7 C 10,6 C 7,2 C 91 % 1021,2 hPa 0,0 l/m 0 min 0 min 64 W/m 16,1 km/h (3 Bft) 97,83 %
05.01.2023 11:32 10,7 C 10,6 C 7,2 C 90 % 1021,2 hPa 0,0 l/m 0 min 0 min 72 W/m 12,9 km/h (3 Bft) 91,49 %
05.01.2023 11:34 10,7 C 10,6 C 7,2 C 90 % 1021,3 hPa 0,0 l/m 0 min 0 min 88 W/m 16,1 km/h (3 Bft) 95,74 %
05.01.2023 11:36 10,7 C 10,6 C 7,2 C 90 % 1021,3 hPa 0,0 l/m 0 min 0 min 103 W/m 9,7 km/h (2 Bft) 97,87 %
05.01.2023 11:38 10,7 C 10,6 C 7,2 C 90 % 1021,3 hPa 0,0 l/m 0 min 0 min 110 W/m 16,1 km/h (3 Bft) 93,62 %
05.01.2023 11:40 10,8 C 10,6 C 7,2 C 90 % 1021,3 hPa 0,0 l/m 0 min 0 min 131 W/m 19,3 km/h (3 Bft) 95,74 %
05.01.2023 11:42 10,8 C 11,1 C 7,8 C 90 % 1021,3 hPa 0,0 l/m 0 min 0 min 139 W/m 16,1 km/h (3 Bft) 97,87 %
05.01.2023 11:44 10,8 C 11,1 C 7,8 C 90 % 1021,3 hPa 0,0 l/m 0 min 0 min 132 W/m 12,9 km/h (3 Bft) 95,65 %
05.01.2023 11:46 10,8 C 11,1 C 7,8 C 90 % 1021,3 hPa 0,0 l/m 0 min 0 min 111 W/m 12,9 km/h (3 Bft) 97,87 %
05.01.2023 11:48 10,9 C 11,1 C 7,8 C 90 % 1021,3 hPa 0,0 l/m 0 min 0 min 122 W/m 12,9 km/h (3 Bft) 95,74 %
05.01.2023 11:50 10,9 C 11,1 C 7,8 C 90 % 1021,3 hPa 0,0 l/m 2 min 0 min 159 W/m 9,7 km/h (2 Bft) 95,74 %
05.01.2023 11:52 10,9 C 11,1 C 7,8 C 90 % 1021,4 hPa 0,0 l/m 0 min 0 min 135 W/m 19,3 km/h (3 Bft) 95,74 %
05.01.2023 11:54 10,9 C 11,1 C 7,8 C 90 % 1021,4 hPa 0,0 l/m 0 min 0 min 149 W/m 19,3 km/h (3 Bft) 97,87 %
05.01.2023 11:56 11,0 C 11,1 C 7,8 C 90 % 1021,4 hPa 0,0 l/m 0 min 0 min 141 W/m 9,7 km/h (2 Bft) 95,65 %
05.01.2023 11:58 11,0 C 11,1 C 7,8 C 90 % 1021,4 hPa 0,0 l/m 0 min 0 min 134 W/m 16,1 km/h (3 Bft) 97,87 %
05.01.2023 12:00 11,1 C 11,7 C 7,8 C 90 % 1021,4 hPa 0,0 l/m 0 min 0 min 143 W/m 22,5 km/h (4 Bft) 97,87 %
05.01.2023 12:02 11,1 C 11,7 C 7,8 C 90 % 1021,4 hPa 0,0 l/m 2 min 0 min 158 W/m 16,1 km/h (3 Bft) 95,74 %
05.01.2023 12:04 11,1 C 11,7 C 7,8 C 89 % 1021,4 hPa 0,0 l/m 0 min 0 min 151 W/m 12,9 km/h (3 Bft) 97,87 %
05.01.2023 12:08 11,1 C 11,7 C 7,8 C 89 % 1021,4 hPa 0,0 l/m 0 min 0 min 150 W/m 16,1 km/h (3 Bft) 97,85 %
05.01.2023 12:10 11,2 C 11,7 C 7,8 C 89 % 1021,4 hPa 0,0 l/m 0 min 0 min 137 W/m 19,3 km/h (3 Bft) 100,00 %
05.01.2023 12:12 11,2 C 11,1 C 7,8 C 89 % 1021,4 hPa 0,0 l/m 0 min 0 min 122 W/m 19,3 km/h (3 Bft) 100,00 %
05.01.2023 12:14 11,2 C 11,1 C 7,8 C 89 % 1021,4 hPa 0,0 l/m 0 min 0 min 116 W/m 9,7 km/h (2 Bft) 95,74 %
05.01.2023 12:16 11,2 C 11,1 C 7,8 C 89 % 1021,3 hPa 0,0 l/m 0 min 0 min 111 W/m 6,4 km/h (2 Bft) 97,87 %
05.01.2023 12:18 11,2 C 11,1 C 7,8 C 89 % 1021,3 hPa 0,0 l/m 0 min 0 min 117 W/m 16,1 km/h (3 Bft) 100,00 %
05.01.2023 12:20 11,2 C 11,1 C 7,8 C 89 % 1021,4 hPa 0,0 l/m 0 min 0 min 107 W/m 12,9 km/h (3 Bft) 95,74 %
05.01.2023 12:22 11,2 C 11,1 C 7,8 C 89 % 1021,4 hPa 0,0 l/m 0 min 0 min 113 W/m 12,9 km/h (3 Bft) 95,65 %
05.01.2023 12:24 11,2 C 11,1 C 7,8 C 89 % 1021,4 hPa 0,0 l/m 0 min 0 min 128 W/m 19,3 km/h (3 Bft) 97,87 %
05.01.2023 12:26 11,2 C 11,1 C 7,8 C 89 % 1021,5 hPa 0,0 l/m 0 min 0 min 124 W/m 19,3 km/h (3 Bft) 97,87 %
05.01.2023 12:28 11,2 C 11,1 C 7,8 C 89 % 1021,4 hPa 0,0 l/m 0 min 0 min 111 W/m 16,1 km/h (3 Bft) 97,87 %
05.01.2023 12:30 11,2 C 11,1 C 7,8 C 89 % 1021,4 hPa 0,0 l/m 0 min 0 min 113 W/m 12,9 km/h (3 Bft) 97,87 %
05.01.2023 12:32 11,2 C 11,7 C 7,8 C 89 % 1021,4 hPa 0,0 l/m 0 min 0 min 124 W/m 9,7 km/h (2 Bft) 97,87 %
05.01.2023 12:34 11,2 C 11,7 C 7,8 C 89 % 1021,3 hPa 0,0 l/m 0 min 0 min 142 W/m 16,1 km/h (3 Bft) 95,65 %
05.01.2023 12:36 11,2 C 11,7 C 7,8 C 89 % 1021,4 hPa 0,0 l/m 0 min 0 min 143 W/m 16,1 km/h (3 Bft) 97,87 %
05.01.2023 12:38 11,3 C 11,7 C 7,8 C 89 % 1021,3 hPa 0,0 l/m 2 min 0 min 163 W/m 12,9 km/h (3 Bft) 95,74 %
05.01.2023 12:40 11,3 C 11,7 C 7,8 C 89 % 1021,4 hPa 0,0 l/m 2 min 0 min 169 W/m 16,1 km/h (3 Bft) 97,87 %
05.01.2023 12:42 11,3 C 11,7 C 7,8 C 89 % 1021,4 hPa 0,0 l/m 0 min 0 min 151 W/m 16,1 km/h (3 Bft) 95,74 %
05.01.2023 12:44 11,4 C 12,2 C 7,8 C 89 % 1021,4 hPa 0,0 l/m 2 min 0 min 158 W/m 16,1 km/h (3 Bft) 97,87 %
05.01.2023 12:46 11,4 C 11,7 C 7,8 C 88 % 1021,4 hPa 0,0 l/m 0 min 0 min 144 W/m 16,1 km/h (3 Bft) 97,87 %
05.01.2023 12:48 11,4 C 11,7 C 7,8 C 88 % 1021,4 hPa 0,0 l/m 0 min 0 min 138 W/m 16,1 km/h (3 Bft) 91,30 %
05.01.2023 12:50 11,4 C 11,7 C 7,8 C 88 % 1021,4 hPa 0,0 l/m 0 min 0 min 137 W/m 9,7 km/h (2 Bft) 87,23 %
05.01.2023 12:52 11,4 C 11,7 C 7,8 C 88 % 1021,4 hPa 0,0 l/m 0 min 0 min 123 W/m 16,1 km/h (3 Bft) 91,49 %
05.01.2023 12:54 11,4 C 11,7 C 7,8 C 88 % 1021,4 hPa 0,0 l/m 0 min 0 min 102 W/m 16,1 km/h (3 Bft) 100,00 %
05.01.2023 12:56 11,4 C 11,1 C 7,8 C 87 % 1021,4 hPa 0,0 l/m 0 min 0 min 102 W/m 16,1 km/h (3 Bft) 97,87 %
05.01.2023 12:58 11,4 C 11,1 C 7,8 C 87 % 1021,4 hPa 0,0 l/m 0 min 0 min 112 W/m 16,1 km/h (3 Bft) 97,87 %
05.01.2023 13:00 11,4 C 12,2 C 7,8 C 87 % 1021,4 hPa 0,0 l/m 2 min 0 min 176 W/m 16,1 km/h (3 Bft) 97,83 %
05.01.2023 13:02 11,4 C 12,2 C 7,8 C 87 % 1021,4 hPa 0,0 l/m 0 min 0 min 149 W/m 19,3 km/h (3 Bft) 97,87 %
05.01.2023 13:04 11,4 C 11,7 C 7,8 C 87 % 1021,4 hPa 0,0 l/m 0 min 0 min 105 W/m 9,7 km/h (2 Bft) 100,00 %
05.01.2023 13:06 11,4 C 11,7 C 7,8 C 87 % 1021,3 hPa 0,0 l/m 0 min 0 min 87 W/m 16,1 km/h (3 Bft) 97,87 %
05.01.2023 13:08 11,4 C 11,7 C 7,8 C 87 % 1021,3 hPa 0,0 l/m 0 min 0 min 110 W/m 6,4 km/h (2 Bft) 97,87 %
05.01.2023 13:10 11,4 C 11,7 C 7,8 C 87 % 1021,3 hPa 0,0 l/m 0 min 0 min 141 W/m 19,3 km/h (3 Bft) 100,00 %
05.01.2023 13:12 11,4 C 12,2 C 7,8 C 88 % 1021,3 hPa 0,0 l/m 0 min 0 min 134 W/m 9,7 km/h (2 Bft) 100,00 %
05.01.2023 13:14 11,4 C 12,2 C 7,8 C 88 % 1021,3 hPa 0,0 l/m 0 min 0 min 148 W/m 6,4 km/h (2 Bft) 100,00 %
05.01.2023 13:16 11,5 C 12,2 C 7,8 C 88 % 1021,3 hPa 0,0 l/m 2 min 0 min 180 W/m 12,9 km/h (3 Bft) 100,00 %
05.01.2023 13:18 11,6 C 12,2 C 8,3 C 88 % 1021,3 hPa 0,0 l/m 2 min 0 min 169 W/m 16,1 km/h (3 Bft) 97,87 %
05.01.2023 13:20 11,6 C 12,2 C 8,3 C 88 % 1021,3 hPa 0,0 l/m 2 min 0 min 173 W/m 16,1 km/h (3 Bft) 100,00 %
05.01.2023 13:22 11,6 C 12,2 C 8,3 C 87 % 1021,3 hPa 0,0 l/m 0 min 0 min 147 W/m 12,9 km/h (3 Bft) 95,74 %
05.01.2023 13:24 11,6 C 12,8 C 8,3 C 87 % 1021,2 hPa 0,0 l/m 2 min 0 min 172 W/m 16,1 km/h (3 Bft) 97,87 %
05.01.2023 13:26 11,7 C 13,9 C 8,3 C 87 % 1021,3 hPa 0,0 l/m 2 min 0 min 266 W/m 12,9 km/h (3 Bft) 97,83 %
05.01.2023 13:28 11,7 C 13,3 C 8,3 C 87 % 1021,3 hPa 0,0 l/m 2 min 0 min 278 W/m 16,1 km/h (3 Bft) 97,73 %
05.01.2023 13:30 11,8 C 13,3 C 8,3 C 87 % 1021,3 hPa 0,0 l/m 2 min 0 min 156 W/m 3,2 km/h (1 Bft) 86,00 %
05.01.2023 13:32 11,8 C 13,3 C 8,3 C 87 % 1021,3 hPa 0,0 l/m 2 min 0 min 197 W/m 19,3 km/h (3 Bft) 91,49 %
05.01.2023 13:34 11,9 C 13,9 C 8,3 C 86 % 1021,3 hPa 0,0 l/m 2 min 0 min 250 W/m 22,5 km/h (4 Bft) 97,87 %
05.01.2023 13:36 12,0 C 14,4 C 8,3 C 86 % 1021,3 hPa 0,0 l/m 2 min 0 min 307 W/m 16,1 km/h (3 Bft) 97,87 %
05.01.2023 13:38 12,1 C 15,0 C 8,3 C 86 % 1021,4 hPa 0,0 l/m 2 min 0 min 326 W/m 12,9 km/h (3 Bft) 95,65 %
05.01.2023 13:40 12,1 C 15,0 C 8,9 C 85 % 1021,3 hPa 0,0 l/m 2 min 0 min 354 W/m 12,9 km/h (3 Bft) 89,36 %
05.01.2023 13:42 12,2 C 14,4 C 8,9 C 85 % 1021,3 hPa 0,0 l/m 2 min 0 min 258 W/m 12,9 km/h (3 Bft) 91,49 %
05.01.2023 13:44 12,2 C 14,4 C 8,3 C 85 % 1021,4 hPa 0,0 l/m 2 min 0 min 190 W/m 16,1 km/h (3 Bft) 89,36 %
05.01.2023 13:46 12,2 C 13,9 C 8,3 C 85 % 1021,3 hPa 0,0 l/m 2 min 0 min 240 W/m 16,1 km/h (3 Bft) 97,87 %
05.01.2023 13:48 12,2 C 13,9 C 8,3 C 84 % 1021,4 hPa 0,0 l/m 2 min 0 min 220 W/m 12,9 km/h (3 Bft) 97,87 %
05.01.2023 13:50 12,2 C 12,8 C 8,3 C 84 % 1021,4 hPa 0,0 l/m 0 min 0 min 110 W/m 16,1 km/h (3 Bft) 95,74 %
05.01.2023 13:52 12,1 C 12,2 C 7,8 C 84 % 1021,4 hPa 0,0 l/m 0 min 0 min 58 W/m 12,9 km/h (3 Bft) 93,48 %
05.01.2023 13:54 12,0 C 11,7 C 7,8 C 84 % 1021,4 hPa 0,0 l/m 0 min 0 min 63 W/m 12,9 km/h (3 Bft) 97,87 %
05.01.2023 13:56 11,9 C 11,7 C 7,8 C 84 % 1021,4 hPa 0,0 l/m 0 min 0 min 64 W/m 19,3 km/h (3 Bft) 95,74 %
05.01.2023 13:58 11,8 C 11,1 C 7,8 C 84 % 1021,4 hPa 0,0 l/m 0 min 0 min 74 W/m 16,1 km/h (3 Bft) 93,62 %
05.01.2023 14:00 11,7 C 11,1 C 7,8 C 84 % 1021,4 hPa 0,0 l/m 0 min 0 min 82 W/m 16,1 km/h (3 Bft) 93,62 %
05.01.2023 14:02 11,6 C 11,1 C 7,8 C 85 % 1021,4 hPa 0,0 l/m 0 min 0 min 102 W/m 6,4 km/h (2 Bft) 95,74 %
05.01.2023 14:04 11,6 C 11,7 C 7,8 C 85 % 1021,4 hPa 0,0 l/m 0 min 0 min 120 W/m 12,9 km/h (3 Bft) 97,87 %
05.01.2023 14:06 11,6 C 11,7 C 7,8 C 85 % 1021,4 hPa 0,0 l/m 0 min 0 min 114 W/m 3,2 km/h (1 Bft) 100,00 %
05.01.2023 14:08 11,6 C 11,7 C 7,8 C 86 % 1021,4 hPa 0,0 l/m 0 min 0 min 110 W/m 12,9 km/h (3 Bft) 97,87 %
05.01.2023 14:10 11,6 C 11,7 C 7,8 C 85 % 1021,3 hPa 0,0 l/m 0 min 0 min 104 W/m 16,1 km/h (3 Bft) 100,00 %
05.01.2023 14:12 11,5 C 11,7 C 7,8 C 85 % 1021,4 hPa 0,0 l/m 0 min 0 min 98 W/m 19,3 km/h (3 Bft) 93,62 %
05.01.2023 14:14 11,4 C 11,7 C 7,8 C 84 % 1021,4 hPa 0,0 l/m 0 min 0 min 99 W/m 9,7 km/h (2 Bft) 95,74 %
05.01.2023 14:16 11,4 C 11,7 C 7,8 C 84 % 1021,4 hPa 0,0 l/m 0 min 0 min 110 W/m 12,9 km/h (3 Bft) 97,87 %
05.01.2023 14:18 11,4 C 11,7 C 7,8 C 84 % 1021,4 hPa 0,0 l/m 0 min 0 min 119 W/m 16,1 km/h (3 Bft) 95,65 %
05.01.2023 14:20 11,4 C 11,7 C 7,8 C 84 % 1021,3 hPa 0,0 l/m 0 min 0 min 118 W/m 9,7 km/h (2 Bft) 95,74 %
05.01.2023 14:22 11,4 C 11,7 C 7,8 C 84 % 1021,3 hPa 0,0 l/m 2 min 0 min 128 W/m 16,1 km/h (3 Bft) 93,62 %
05.01.2023 14:24 11,4 C 11,7 C 7,8 C 84 % 1021,3 hPa 0,0 l/m 2 min 0 min 184 W/m 19,3 km/h (3 Bft) 97,87 %
05.01.2023 14:26 11,5 C 11,7 C 7,8 C 84 % 1021,3 hPa 0,0 l/m 2 min 0 min 227 W/m 12,9 km/h (3 Bft) 95,74 %
05.01.2023 14:28 11,6 C 12,2 C 7,8 C 84 % 1021,3 hPa 0,0 l/m 2 min 0 min 204 W/m 6,4 km/h (2 Bft) 95,74 %
05.01.2023 14:30 11,6 C 12,2 C 7,8 C 84 % 1021,3 hPa 0,0 l/m 2 min 0 min 169 W/m 9,7 km/h (2 Bft) 97,83 %
05.01.2023 14:32 11,7 C 12,8 C 7,8 C 84 % 1021,3 hPa 0,0 l/m 2 min 0 min 168 W/m 16,1 km/h (3 Bft) 95,74 %
05.01.2023 14:34 11,8 C 12,8 C 7,8 C 84 % 1021,3 hPa 0,0 l/m 2 min 0 min 155 W/m 6,4 km/h (2 Bft) 95,74 %
05.01.2023 14:36 11,8 C 12,8 C 7,8 C 84 % 1021,3 hPa 0,0 l/m 2 min 0 min 171 W/m 16,1 km/h (3 Bft) 93,62 %
05.01.2023 14:38 11,9 C 12,8 C 7,8 C 83 % 1021,3 hPa 0,0 l/m 2 min 0 min 156 W/m 16,1 km/h (3 Bft) 95,74 %
05.01.2023 14:40 11,9 C 12,2 C 7,8 C 83 % 1021,4 hPa 0,0 l/m 2 min 0 min 144 W/m 12,9 km/h (3 Bft) 95,74 %
05.01.2023 14:42 11,9 C 12,2 C 7,8 C 83 % 1021,3 hPa 0,0 l/m 2 min 0 min 121 W/m 9,7 km/h (2 Bft) 93,62 %
05.01.2023 14:44 11,9 C 12,2 C 7,8 C 82 % 1021,4 hPa 0,0 l/m 0 min 0 min 85 W/m 19,3 km/h (3 Bft) 95,65 %
05.01.2023 14:46 11,9 C 11,7 C 7,8 C 82 % 1021,4 hPa 0,0 l/m 0 min 0 min 76 W/m 16,1 km/h (3 Bft) 95,74 %
05.01.2023 14:48 11,9 C 11,7 C 7,8 C 82 % 1021,4 hPa 0,0 l/m 0 min 0 min 69 W/m 22,5 km/h (4 Bft) 93,62 %
05.01.2023 14:50 11,9 C 11,7 C 7,8 C 82 % 1021,4 hPa 0,0 l/m 0 min 0 min 70 W/m 6,4 km/h (2 Bft) 95,74 %
05.01.2023 14:52 11,9 C 11,7 C 7,8 C 82 % 1021,4 hPa 0,0 l/m 0 min 0 min 72 W/m 12,9 km/h (3 Bft) 95,74 %
05.01.2023 14:54 11,9 C 11,7 C 7,8 C 83 % 1021,4 hPa 0,0 l/m 0 min 0 min 70 W/m 25,7 km/h (4 Bft) 93,62 %
05.01.2023 14:56 11,8 C 11,7 C 7,8 C 82 % 1021,4 hPa 0,0 l/m 0 min 0 min 70 W/m 16,1 km/h (3 Bft) 95,65 %
05.01.2023 14:58 11,8 C 11,7 C 7,8 C 82 % 1021,4 hPa 0,0 l/m 0 min 0 min 69 W/m 12,9 km/h (3 Bft) 93,62 %
05.01.2023 15:00 11,8 C 11,7 C 7,8 C 82 % 1021,4 hPa 0,0 l/m 0 min 0 min 69 W/m 12,9 km/h (3 Bft) 97,87 %
05.01.2023 15:02 11,8 C 11,7 C 7,8 C 82 % 1021,4 hPa 0,0 l/m 0 min 0 min 70 W/m 16,1 km/h (3 Bft) 97,87 %
05.01.2023 15:04 11,8 C 11,7 C 7,8 C 82 % 1021,4 hPa 0,0 l/m 0 min 0 min 66 W/m 12,9 km/h (3 Bft) 97,87 %
05.01.2023 15:06 11,8 C 11,7 C 7,8 C 82 % 1021,4 hPa 0,0 l/m 0 min 0 min 59 W/m 16,1 km/h (3 Bft) 97,87 %
05.01.2023 15:08 11,8 C 11,1 C 7,8 C 82 % 1021,4 hPa 0,0 l/m 0 min 0 min 53 W/m 12,9 km/h (3 Bft) 95,65 %
05.01.2023 15:10 11,7 C 11,1 C 7,8 C 82 % 1021,5 hPa 0,0 l/m 0 min 0 min 49 W/m 12,9 km/h (3 Bft) 95,74 %
05.01.2023 15:12 11,7 C 11,1 C 7,8 C 82 % 1021,4 hPa 0,0 l/m 0 min 0 min 48 W/m 16,1 km/h (3 Bft) 95,74 %
05.01.2023 15:14 11,7 C 11,1 C 7,8 C 82 % 1021,4 hPa 0,0 l/m 0 min 0 min 46 W/m 9,7 km/h (2 Bft) 93,62 %
05.01.2023 15:16 11,6 C 11,1 C 7,8 C 82 % 1021,4 hPa 0,0 l/m 0 min 0 min 50 W/m 12,9 km/h (3 Bft) 100,00 %
05.01.2023 15:18 11,6 C 11,1 C 7,8 C 82 % 1021,4 hPa 0,0 l/m 0 min 0 min 55 W/m 6,4 km/h (2 Bft) 97,87 %
05.01.2023 15:20 11,6 C 11,1 C 7,8 C 83 % 1021,4 hPa 0,0 l/m 0 min 0 min 58 W/m 16,1 km/h (3 Bft) 100,00 %
05.01.2023 15:22 11,6 C 11,1 C 7,8 C 83 % 1021,4 hPa 0,0 l/m 0 min 0 min 60 W/m 12,9 km/h (3 Bft) 89,36 %
05.01.2023 15:24 11,5 C 11,1 C 7,8 C 83 % 1021,4 hPa 0,0 l/m 0 min 0 min 64 W/m 16,1 km/h (3 Bft) 87,23 %
05.01.2023 15:26 11,5 C 11,1 C 7,8 C 83 % 1021,4 hPa 0,0 l/m 0 min 0 min 71 W/m 6,4 km/h (2 Bft) 95,74 %
05.01.2023 15:28 11,5 C 11,1 C 7,8 C 83 % 1021,5 hPa 0,0 l/m 2 min 0 min 76 W/m 6,4 km/h (2 Bft) 95,74 %
05.01.2023 15:30 11,6 C 11,7 C 7,8 C 83 % 1021,5 hPa 0,0 l/m 2 min 0 min 74 W/m 6,4 km/h (2 Bft) 91,49 %
05.01.2023 15:32 11,6 C 11,7 C 7,8 C 83 % 1021,5 hPa 0,0 l/m 0 min 0 min 68 W/m 6,4 km/h (2 Bft) 97,87 %
05.01.2023 15:34 11,6 C 11,1 C 7,8 C 83 % 1021,6 hPa 0,0 l/m 0 min 0 min 58 W/m 6,4 km/h (2 Bft) 95,65 %
05.01.2023 15:36 11,6 C 11,1 C 7,2 C 84 % 1021,6 hPa 0,0 l/m 0 min 0 min 56 W/m 12,9 km/h (3 Bft) 61,70 %
05.01.2023 15:38 11,6 C 11,1 C 7,2 C 84 % 1021,6 hPa 0,0 l/m 0 min 0 min 54 W/m 12,9 km/h (3 Bft) 91,11 %
05.01.2023 15:40 11,5 C 11,1 C 7,2 C 84 % 1021,6 hPa 0,0 l/m 0 min 0 min 53 W/m 6,4 km/h (2 Bft) 100,00 %
05.01.2023 15:42 11,5 C 11,1 C 7,2 C 84 % 1021,6 hPa 0,0 l/m 0 min 0 min 51 W/m 16,1 km/h (3 Bft) 95,74 %
05.01.2023 15:44 11,4 C 11,1 C 7,2 C 85 % 1021,6 hPa 0,0 l/m 0 min 0 min 47 W/m 12,9 km/h (3 Bft) 100,00 %
05.01.2023 15:46 11,4 C 11,1 C 7,2 C 85 % 1021,7 hPa 0,0 l/m 0 min 0 min 45 W/m 6,4 km/h (2 Bft) 100,00 %
05.01.2023 15:48 11,4 C 11,1 C 7,2 C 85 % 1021,6 hPa 0,0 l/m 0 min 0 min 40 W/m 12,9 km/h (3 Bft) 95,65 %
05.01.2023 15:50 11,4 C 11,1 C 7,2 C 85 % 1021,6 hPa 0,0 l/m 0 min 0 min 35 W/m 12,9 km/h (3 Bft) 93,62 %
05.01.2023 15:52 11,4 C 10,6 C 7,2 C 85 % 1021,6 hPa 0,0 l/m 0 min 0 min 32 W/m 6,4 km/h (2 Bft) 100,00 %
05.01.2023 15:54 11,3 C 10,6 C 7,2 C 85 % 1021,6 hPa 0,0 l/m 0 min 0 min 32 W/m 6,4 km/h (2 Bft) 100,00 %
05.01.2023 15:56 11,3 C 10,6 C 7,2 C 86 % 1021,7 hPa 0,0 l/m 0 min 0 min 31 W/m 3,2 km/h (1 Bft) 93,62 %
05.01.2023 15:58 11,3 C 10,6 C 7,2 C 86 % 1021,7 hPa 0,0 l/m 0 min 0 min 28 W/m 3,2 km/h (1 Bft) 89,36 %
05.01.2023 16:00 11,3 C 10,6 C 7,2 C 86 % 1021,7 hPa 0,0 l/m 0 min 0 min 28 W/m 12,9 km/h (3 Bft) 97,83 %
05.01.2023 16:02 11,3 C 10,6 C 7,2 C 86 % 1021,7 hPa 0,0 l/m 0 min 0 min 26 W/m 6,4 km/h (2 Bft) 93,62 %
05.01.2023 16:04 11,3 C 10,6 C 7,2 C 86 % 1021,7 hPa 0,0 l/m 0 min 0 min 26 W/m 3,2 km/h (1 Bft) 96,00 %
05.01.2023 16:06 11,3 C 10,6 C 7,2 C 86 % 1021,7 hPa 0,0 l/m 0 min 0 min 24 W/m 6,4 km/h (2 Bft) 95,74 %
05.01.2023 16:08 11,2 C 10,6 C 7,2 C 86 % 1021,7 hPa 0,0 l/m 0 min 0 min 21 W/m 3,2 km/h (1 Bft) 93,62 %
05.01.2023 16:10 11,2 C 10,6 C 7,2 C 86 % 1021,6 hPa 0,0 l/m 0 min 0 min 19 W/m 9,7 km/h (2 Bft) 97,87 %
05.01.2023 16:12 11,2 C 10,6 C 7,2 C 86 % 1021,6 hPa 0,0 l/m 0 min 0 min 18 W/m 3,2 km/h (1 Bft) 95,65 %
05.01.2023 16:14 11,2 C 10,6 C 7,2 C 86 % 1021,6 hPa 0,0 l/m 0 min 0 min 19 W/m 3,2 km/h (1 Bft) 97,87 %
05.01.2023 16:16 11,2 C 10,6 C 7,2 C 87 % 1021,6 hPa 0,0 l/m 0 min 0 min 18 W/m 3,2 km/h (1 Bft) 97,87 %
05.01.2023 16:18 11,2 C 10,6 C 7,2 C 87 % 1021,6 hPa 0,0 l/m 0 min 0 min 15 W/m 9,7 km/h (2 Bft) 97,87 %
05.01.2023 16:20 11,2 C 10,6 C 7,2 C 87 % 1021,6 hPa 0,0 l/m 0 min 0 min 12 W/m 9,7 km/h (2 Bft) 97,87 %
05.01.2023 16:22 11,2 C 10,6 C 7,2 C 87 % 1021,7 hPa 0,0 l/m 0 min 0 min 11 W/m 6,4 km/h (2 Bft) 95,74 %
05.01.2023 16:24 11,2 C 10,6 C 7,2 C 87 % 1021,6 hPa 0,0 l/m 0 min 0 min 9 W/m 16,1 km/h (3 Bft) 95,65 %
05.01.2023 16:26 11,1 C 10,6 C 7,2 C 87 % 1021,6 hPa 0,0 l/m 0 min 0 min 9 W/m 12,9 km/h (3 Bft) 97,87 %
05.01.2023 16:28 11,1 C 10,6 C 7,2 C 87 % 1021,6 hPa 0,0 l/m 0 min 0 min 9 W/m 9,7 km/h (2 Bft) 95,74 %
05.01.2023 16:30 11,1 C 10,6 C 7,2 C 87 % 1021,5 hPa 0,0 l/m 0 min 0 min 6 W/m 3,2 km/h (1 Bft) 95,74 %
05.01.2023 16:32 11,1 C 10,6 C 7,2 C 87 % 1021,5 hPa 0,0 l/m 0 min 0 min 5 W/m 6,4 km/h (2 Bft) 97,87 %
05.01.2023 16:34 11,1 C 10,6 C 7,2 C 87 % 1021,5 hPa 0,0 l/m 0 min 0 min 5 W/m 9,7 km/h (2 Bft) 97,87 %
05.01.2023 16:36 11,1 C 10,6 C 7,2 C 87 % 1021,5 hPa 0,0 l/m 0 min 0 min 1 W/m 9,7 km/h (2 Bft) 95,74 %
05.01.2023 16:38 11,1 C 10,6 C 7,2 C 87 % 1021,5 hPa 0,0 l/m 0 min 0 min 0 W/m 9,7 km/h (2 Bft) 93,48 %
05.01.2023 16:40 11,1 C 10,6 C 7,2 C 87 % 1021,5 hPa 0,0 l/m 0 min 0 min 0 W/m 9,7 km/h (2 Bft) 95,74 %
05.01.2023 16:42 11,1 C 10,0 C 7,2 C 88 % 1021,5 hPa 0,0 l/m 0 min 0 min 0 W/m 6,4 km/h (2 Bft) 95,74 %
05.01.2023 16:44 11,1 C 10,0 C 7,2 C 87 % 1021,5 hPa 0,0 l/m 0 min 0 min 0 W/m 16,1 km/h (3 Bft) 91,49 %
05.01.2023 16:46 11,1 C 10,0 C 7,2 C 88 % 1021,5 hPa 0,0 l/m 0 min 0 min 0 W/m 9,7 km/h (2 Bft) 95,74 %
05.01.2023 16:48 11,1 C 10,0 C 6,7 C 88 % 1021,5 hPa 0,0 l/m 0 min 0 min 0 W/m 9,7 km/h (2 Bft) 91,49 %
05.01.2023 16:50 11,1 C 10,0 C 6,7 C 88 % 1021,5 hPa 0,0 l/m 0 min 0 min 0 W/m 6,4 km/h (2 Bft) 93,48 %
05.01.2023 16:52 11,1 C 10,0 C 6,7 C 88 % 1021,5 hPa 0,0 l/m 0 min 0 min 0 W/m 9,7 km/h (2 Bft) 95,74 %
05.01.2023 16:54 11,1 C 10,0 C 6,7 C 88 % 1021,5 hPa 0,0 l/m 0 min 0 min 0 W/m 6,4 km/h (2 Bft) 93,62 %
05.01.2023 16:56 11,0 C 10,0 C 6,7 C 88 % 1021,4 hPa 0,0 l/m 0 min 0 min 0 W/m 12,9 km/h (3 Bft) 97,87 %
05.01.2023 16:58 11,0 C 10,0 C 6,7 C 88 % 1021,4 hPa 0,0 l/m 0 min 0 min 0 W/m 9,7 km/h (2 Bft) 97,87 %
05.01.2023 17:00 11,0 C 10,0 C 6,7 C 88 % 1021,5 hPa 0,0 l/m 0 min 0 min 0 W/m 12,9 km/h (3 Bft) 93,62 %
05.01.2023 17:02 11,0 C 10,0 C 6,7 C 89 % 1021,5 hPa 0,0 l/m 0 min 0 min 0 W/m 6,4 km/h (2 Bft) 91,49 %
05.01.2023 17:04 11,0 C 10,0 C 6,7 C 89 % 1021,5 hPa 0,0 l/m 0 min 0 min 0 W/m 6,4 km/h (2 Bft) 91,30 %
05.01.2023 17:06 11,0 C 10,0 C 6,7 C 89 % 1021,6 hPa 0,0 l/m 0 min 0 min 0 W/m 9,7 km/h (2 Bft) 91,49 %
05.01.2023 17:08 10,9 C 10,0 C 6,7 C 89 % 1021,6 hPa 0,0 l/m 0 min 0 min 0 W/m 9,7 km/h (2 Bft) 97,87 %
05.01.2023 17:10 10,9 C 10,0 C 6,7 C 89 % 1021,6 hPa 0,0 l/m 0 min 0 min 0 W/m 9,7 km/h (2 Bft) 97,87 %
05.01.2023 17:12 10,9 C 10,0 C 6,7 C 89 % 1021,6 hPa 0,0 l/m 0 min 0 min 0 W/m 12,9 km/h (3 Bft) 97,87 %
05.01.2023 17:14 10,9 C 10,0 C 6,7 C 89 % 1021,6 hPa 0,0 l/m 0 min 0 min 0 W/m 9,7 km/h (2 Bft) 97,87 %
05.01.2023 17:16 10,9 C 10,0 C 6,7 C 89 % 1021,6 hPa 0,0 l/m 0 min 0 min 0 W/m 9,7 km/h (2 Bft) 97,83 %
05.01.2023 17:18 10,9 C 10,0 C 6,7 C 89 % 1021,6 hPa 0,0 l/m 0 min 0 min 0 W/m 12,9 km/h (3 Bft) 97,87 %
05.01.2023 17:20 10,9 C 10,0 C 6,7 C 89 % 1021,6 hPa 0,0 l/m 0 min 0 min 0 W/m 6,4 km/h (2 Bft) 97,87 %
05.01.2023 17:22 10,9 C 10,0 C 6,7 C 89 % 1021,5 hPa 0,0 l/m 0 min 0 min 0 W/m 9,7 km/h (2 Bft) 97,87 %
05.01.2023 17:24 10,9 C 10,0 C 6,7 C 90 % 1021,5 hPa 0,0 l/m 0 min 0 min 0 W/m 25,7 km/h (4 Bft) 97,87 %
05.01.2023 17:26 10,8 C 10,0 C 6,7 C 90 % 1021,5 hPa 0,0 l/m 0 min 0 min 0 W/m 29,0 km/h (5 Bft) 95,74 %
05.01.2023 17:28 10,8 C 10,0 C 6,7 C 90 % 1021,5 hPa 0,0 l/m 0 min 0 min 0 W/m 12,9 km/h (3 Bft) 97,83 %
05.01.2023 17:30 10,8 C 10,0 C 6,7 C 90 % 1021,6 hPa 0,0 l/m 0 min 0 min 0 W/m 19,3 km/h (3 Bft) 95,74 %
05.01.2023 17:32 10,8 C 10,0 C 6,7 C 90 % 1021,6 hPa 0,0 l/m 0 min 0 min 0 W/m 12,9 km/h (3 Bft) 97,87 %
05.01.2023 17:34 10,8 C 10,0 C 6,7 C 90 % 1021,5 hPa 0,0 l/m 0 min 0 min 0 W/m 12,9 km/h (3 Bft) 97,87 %
05.01.2023 17:36 10,8 C 10,0 C 6,7 C 90 % 1021,6 hPa 0,0 l/m 0 min 0 min 0 W/m 3,2 km/h (1 Bft) 95,74 %
05.01.2023 17:38 10,8 C 10,0 C 6,7 C 90 % 1021,5 hPa 0,0 l/m 0 min 0 min 0 W/m 9,7 km/h (2 Bft) 97,87 %
05.01.2023 17:40 10,7 C 10,0 C 6,7 C 90 % 1021,6 hPa 0,0 l/m 0 min 0 min 0 W/m 9,7 km/h (2 Bft) 100,00 %
05.01.2023 17:42 10,7 C 10,0 C 6,7 C 90 % 1021,5 hPa 0,0 l/m 0 min 0 min 0 W/m 16,1 km/h (3 Bft) 74,47 %
05.01.2023 17:44 10,7 C 10,0 C 6,7 C 91 % 1021,5 hPa 0,0 l/m 0 min 0 min 0 W/m 12,9 km/h (3 Bft) 81,40 %
05.01.2023 17:46 10,7 C 10,0 C 6,7 C 91 % 1021,5 hPa 0,0 l/m 0 min 0 min 0 W/m 9,7 km/h (2 Bft) 100,00 %
05.01.2023 17:48 10,7 C 9,4 C 6,1 C 91 % 1021,5 hPa 0,0 l/m 0 min 0 min 0 W/m 16,1 km/h (3 Bft) 100,00 %
05.01.2023 17:50 10,7 C 9,4 C 6,1 C 91 % 1021,4 hPa 0,0 l/m 0 min 0 min 0 W/m 12,9 km/h (3 Bft) 100,00 %
05.01.2023 17:52 10,6 C 9,4 C 6,1 C 92 % 1021,4 hPa 0,0 l/m 0 min 2 min 0 W/m 12,9 km/h (3 Bft) 100,00 %
05.01.2023 17:54 10,6 C 9,4 C 6,1 C 92 % 1021,3 hPa 0,0 l/m 0 min 0 min 0 W/m 16,1 km/h (3 Bft) 97,87 %
05.01.2023 17:56 10,6 C 9,4 C 6,1 C 92 % 1021,3 hPa 0,0 l/m 0 min 0 min 0 W/m 16,1 km/h (3 Bft) 100,00 %
05.01.2023 17:58 10,6 C 9,4 C 6,1 C 92 % 1021,4 hPa 0,0 l/m 0 min 0 min 0 W/m 12,9 km/h (3 Bft) 100,00 %
05.01.2023 18:00 10,6 C 9,4 C 6,1 C 92 % 1021,4 hPa 0,0 l/m 0 min 0 min 0 W/m 9,7 km/h (2 Bft) 97,87 %
05.01.2023 18:02 10,6 C 9,4 C 6,1 C 92 % 1021,3 hPa 0,0 l/m 0 min 0 min 0 W/m 6,4 km/h (2 Bft) 100,00 %
05.01.2023 18:04 10,5 C 9,4 C 6,1 C 93 % 1021,3 hPa 0,0 l/m 0 min 0 min 0 W/m 6,4 km/h (2 Bft) 100,00 %
05.01.2023 18:06 10,5 C 9,4 C 6,1 C 93 % 1021,3 hPa 0,0 l/m 0 min 0 min 0 W/m 16,1 km/h (3 Bft) 95,74 %
05.01.2023 18:08 10,5 C 9,4 C 6,1 C 93 % 1021,3 hPa 0,0 l/m 0 min 0 min 0 W/m 9,7 km/h (2 Bft) 100,00 %
05.01.2023 18:10 10,4 C 9,4 C 6,1 C 93 % 1021,3 hPa 0,0 l/m 0 min 0 min 0 W/m 6,4 km/h (2 Bft) 97,87 %
05.01.2023 18:12 10,4 C 9,4 C 6,1 C 93 % 1021,3 hPa 0,0 l/m 0 min 0 min 0 W/m 12,9 km/h (3 Bft) 100,00 %
05.01.2023 18:14 10,4 C 9,4 C 6,1 C 93 % 1021,3 hPa 0,0 l/m 0 min 0 min 0 W/m 9,7 km/h (2 Bft) 100,00 %
05.01.2023 18:16 10,4 C 9,4 C 6,1 C 93 % 1021,2 hPa 0,0 l/m 0 min 2 min 0 W/m 16,1 km/h (3 Bft) 100,00 %
05.01.2023 18:18 10,4 C 9,4 C 6,1 C 93 % 1021,3 hPa 0,0 l/m 0 min 2 min 0 W/m 9,7 km/h (2 Bft) 100,00 %
05.01.2023 18:20 10,4 C 9,4 C 6,1 C 94 % 1021,2 hPa 0,0 l/m 0 min 2 min 0 W/m 16,1 km/h (3 Bft) 97,83 %
05.01.2023 18:22 10,3 C 9,4 C 6,1 C 94 % 1021,1 hPa 0,0 l/m 0 min 0 min 0 W/m 12,9 km/h (3 Bft) 100,00 %
05.01.2023 18:24 10,3 C 9,4 C 6,1 C 94 % 1021,2 hPa 0,0 l/m 0 min 0 min 0 W/m 16,1 km/h (3 Bft) 100,00 %
05.01.2023 18:26 10,3 C 9,4 C 6,1 C 94 % 1021,2 hPa 0,0 l/m 0 min 0 min 0 W/m 12,9 km/h (3 Bft) 100,00 %
05.01.2023 18:28 10,3 C 9,4 C 6,1 C 94 % 1021,2 hPa 0,2 l/m 0 min 0 min 0 W/m 9,7 km/h (2 Bft) 97,87 %
05.01.2023 18:30 10,3 C 9,4 C 6,1 C 94 % 1021,2 hPa 0,0 l/m 0 min 0 min 0 W/m 12,9 km/h (3 Bft) 97,87 %
05.01.2023 18:32 10,3 C 8,9 C 6,1 C 94 % 1021,1 hPa 0,0 l/m 0 min 0 min 0 W/m 9,7 km/h (2 Bft) 97,87 %
05.01.2023 18:34 10,2 C 8,9 C 6,1 C 94 % 1021,1 hPa 0,0 l/m 0 min 0 min 0 W/m 9,7 km/h (2 Bft) 97,83 %
05.01.2023 18:36 10,2 C 8,9 C 6,1 C 94 % 1021,1 hPa 0,0 l/m 0 min 0 min 0 W/m 9,7 km/h (2 Bft) 97,87 %
05.01.2023 18:38 10,2 C 8,9 C 6,1 C 94 % 1021,2 hPa 0,0 l/m 0 min 0 min 0 W/m 16,1 km/h (3 Bft) 97,87 %
05.01.2023 18:40 10,2 C 8,9 C 5,6 C 95 % 1021,2 hPa 0,0 l/m 0 min 0 min 0 W/m 12,9 km/h (3 Bft) 97,87 %
05.01.2023 18:42 10,1 C 8,9 C 5,6 C 95 % 1021,1 hPa 0,0 l/m 0 min 0 min 0 W/m 9,7 km/h (2 Bft) 97,87 %
05.01.2023 18:44 10,1 C 8,9 C 6,1 C 95 % 1021,1 hPa 0,0 l/m 0 min 0 min 0 W/m 19,3 km/h (3 Bft) 97,87 %
05.01.2023 18:46 10,1 C 8,9 C 6,1 C 95 % 1021,2 hPa 0,0 l/m 0 min 0 min 0 W/m 16,1 km/h (3 Bft) 97,83 %
05.01.2023 18:48 10,1 C 8,9 C 6,1 C 95 % 1021,2 hPa 0,0 l/m 0 min 0 min 0 W/m 9,7 km/h (2 Bft) 97,87 %
05.01.2023 18:50 10,1 C 8,9 C 6,1 C 95 % 1021,2 hPa 0,0 l/m 0 min 0 min 0 W/m 9,7 km/h (2 Bft) 97,87 %
05.01.2023 18:52 10,1 C 8,9 C 6,1 C 95 % 1021,1 hPa 0,0 l/m 0 min 0 min 0 W/m 12,9 km/h (3 Bft) 97,87 %
05.01.2023 18:54 10,1 C 8,9 C 6,1 C 95 % 1021,1 hPa 0,0 l/m 0 min 0 min 0 W/m 9,7 km/h (2 Bft) 97,92 %
05.01.2023 18:56 10,1 C 8,9 C 6,1 C 95 % 1021,1 hPa 0,0 l/m 0 min 0 min 0 W/m 6,4 km/h (2 Bft) 95,74 %
05.01.2023 18:58 10,1 C 8,9 C 6,1 C 95 % 1021,0 hPa 0,0 l/m 0 min 0 min 0 W/m 6,4 km/h (2 Bft) 100,00 %
05.01.2023 19:00 10,1 C 8,9 C 6,1 C 95 % 1021,1 hPa 0,0 l/m 0 min 0 min 0 W/m 6,4 km/h (2 Bft) 97,87 %
05.01.2023 19:02 10,1 C 8,9 C 6,1 C 95 % 1021,1 hPa 0,0 l/m 0 min 0 min 0 W/m 9,7 km/h (2 Bft) 95,74 %
05.01.2023 19:04 10,1 C 8,9 C 6,1 C 95 % 1021,0 hPa 0,0 l/m 0 min 0 min 0 W/m 12,9 km/h (3 Bft) 97,87 %
05.01.2023 19:06 10,1 C 8,9 C 6,1 C 95 % 1021,0 hPa 0,0 l/m 0 min 0 min 0 W/m 6,4 km/h (2 Bft) 97,87 %
05.01.2023 19:08 10,1 C 8,9 C 6,1 C 96 % 1021,0 hPa 0,0 l/m 0 min 0 min 0 W/m 12,9 km/h (3 Bft) 97,87 %
05.01.2023 19:10 10,1 C 8,9 C 6,1 C 96 % 1021,0 hPa 0,0 l/m 0 min 0 min 0 W/m 12,9 km/h (3 Bft) 97,87 %
05.01.2023 19:12 10,0 C 8,9 C 6,1 C 96 % 1020,9 hPa 0,0 l/m 0 min 0 min 0 W/m 9,7 km/h (2 Bft) 97,83 %
05.01.2023 19:14 10,0 C 8,9 C 6,1 C 96 % 1020,9 hPa 0,0 l/m 0 min 0 min 0 W/m 6,4 km/h (2 Bft) 97,87 %
05.01.2023 19:16 10,0 C 8,9 C 6,1 C 96 % 1020,9 hPa 0,0 l/m 0 min 0 min 0 W/m 6,4 km/h (2 Bft) 97,87 %
05.01.2023 19:18 10,0 C 8,9 C 6,1 C 96 % 1020,9 hPa 0,0 l/m 0 min 0 min 0 W/m 6,4 km/h (2 Bft) 95,74 %
05.01.2023 19:20 9,9 C 8,9 C 6,1 C 96 % 1020,9 hPa 0,0 l/m 0 min 0 min 0 W/m 6,4 km/h (2 Bft) 95,74 %
05.01.2023 19:22 9,9 C 8,9 C 6,1 C 96 % 1020,9 hPa 0,0 l/m 0 min 0 min 0 W/m 9,7 km/h (2 Bft) 97,87 %
05.01.2023 19:24 9,9 C 8,9 C 6,1 C 96 % 1020,9 hPa 0,0 l/m 0 min 0 min 0 W/m 9,7 km/h (2 Bft) 97,83 %
05.01.2023 19:26 9,9 C 8,9 C 6,1 C 96 % 1020,8 hPa 0,0 l/m 0 min 0 min 0 W/m 12,9 km/h (3 Bft) 97,87 %
05.01.2023 19:28 9,9 C 8,9 C 6,1 C 96 % 1020,8 hPa 0,0 l/m 0 min 0 min 0 W/m 12,9 km/h (3 Bft) 97,87 %
05.01.2023 19:30 9,9 C 8,9 C 6,1 C 96 % 1020,9 hPa 0,0 l/m 0 min 0 min 0 W/m 6,4 km/h (2 Bft) 95,74 %
05.01.2023 19:32 9,9 C 8,9 C 6,1 C 96 % 1020,9 hPa 0,0 l/m 0 min 0 min 0 W/m 9,7 km/h (2 Bft) 95,74 %
05.01.2023 19:34 9,9 C 8,9 C 6,1 C 96 % 1020,8 hPa 0,0 l/m 0 min 0 min 0 W/m 16,1 km/h (3 Bft) 91,49 %
05.01.2023 19:36 9,9 C 8,9 C 6,1 C 96 % 1020,7 hPa 0,0 l/m 0 min 0 min 0 W/m 9,7 km/h (2 Bft) 95,65 %
05.01.2023 19:38 9,9 C 8,9 C 6,1 C 96 % 1020,8 hPa 0,0 l/m 0 min 0 min 0 W/m 6,4 km/h (2 Bft) 95,74 %
05.01.2023 19:40 9,9 C 8,9 C 6,1 C 96 % 1020,8 hPa 0,0 l/m 0 min 0 min 0 W/m 12,9 km/h (3 Bft) 95,74 %
05.01.2023 19:42 9,9 C 8,9 C 6,1 C 96 % 1020,8 hPa 0,0 l/m 0 min 0 min 0 W/m 12,9 km/h (3 Bft) 95,74 %
05.01.2023 19:44 9,9 C 8,9 C 6,1 C 96 % 1020,8 hPa 0,0 l/m 0 min 0 min 0 W/m 9,7 km/h (2 Bft) 95,74 %
05.01.2023 19:46 9,9 C 8,9 C 6,1 C 96 % 1020,7 hPa 0,0 l/m 0 min 0 min 0 W/m 9,7 km/h (2 Bft) 93,62 %
05.01.2023 19:48 9,9 C 8,9 C 6,1 C 96 % 1020,7 hPa 0,0 l/m 0 min 0 min 0 W/m 12,9 km/h (3 Bft) 95,65 %
05.01.2023 19:50 9,9 C 8,9 C 6,1 C 96 % 1020,7 hPa 0,0 l/m 0 min 0 min 0 W/m 9,7 km/h (2 Bft) 95,74 %
05.01.2023 19:52 10,0 C 8,9 C 6,1 C 96 % 1020,7 hPa 0,0 l/m 0 min 0 min 0 W/m 9,7 km/h (2 Bft) 91,49 %
05.01.2023 19:54 9,9 C 8,9 C 6,1 C 96 % 1020,6 hPa 0,0 l/m 0 min 0 min 0 W/m 9,7 km/h (2 Bft) 95,74 %
05.01.2023 19:56 10,0 C 9,4 C 6,1 C 97 % 1020,6 hPa 0,0 l/m 0 min 0 min 0 W/m 12,9 km/h (3 Bft) 97,87 %
05.01.2023 19:58 10,0 C 9,4 C 6,1 C 97 % 1020,6 hPa 0,0 l/m 0 min 0 min 0 W/m 12,9 km/h (3 Bft) 97,87 %
05.01.2023 20:00 10,0 C 9,4 C 6,1 C 97 % 1020,6 hPa 0,0 l/m 0 min 0 min 0 W/m 16,1 km/h (3 Bft) 95,74 %
05.01.2023 20:02 10,0 C 9,4 C 6,1 C 97 % 1020,6 hPa 0,0 l/m 0 min 0 min 0 W/m 9,7 km/h (2 Bft) 95,65 %
05.01.2023 20:04 10,0 C 9,4 C 6,1 C 97 % 1020,6 hPa 0,0 l/m 0 min 0 min 0 W/m 6,4 km/h (2 Bft) 97,92 %
05.01.2023 20:06 10,1 C 9,4 C 6,1 C 97 % 1020,6 hPa 0,0 l/m 0 min 0 min 0 W/m 16,1 km/h (3 Bft) 97,87 %
05.01.2023 20:08 10,1 C 9,4 C 6,1 C 97 % 1020,6 hPa 0,0 l/m 0 min 0 min 0 W/m 9,7 km/h (2 Bft) 97,87 %
05.01.2023 20:10 10,1 C 9,4 C 6,1 C 97 % 1020,6 hPa 0,0 l/m 0 min 0 min 0 W/m 12,9 km/h (3 Bft) 95,74 %
05.01.2023 20:12 10,1 C 9,4 C 6,1 C 97 % 1020,6 hPa 0,0 l/m 0 min 0 min 0 W/m 9,7 km/h (2 Bft) 97,87 %
05.01.2023 20:14 10,1 C 9,4 C 6,1 C 97 % 1020,6 hPa 0,0 l/m 0 min 0 min 0 W/m 12,9 km/h (3 Bft) 93,48 %
05.01.2023 20:16 10,1 C 9,4 C 6,1 C 97 % 1020,5 hPa 0,0 l/m 0 min 0 min 0 W/m 12,9 km/h (3 Bft) 100,00 %
05.01.2023 20:18 10,1 C 9,4 C 6,1 C 97 % 1020,5 hPa 0,0 l/m 0 min 0 min 0 W/m 9,7 km/h (2 Bft) 100,00 %
05.01.2023 20:20 10,1 C 9,4 C 6,1 C 97 % 1020,5 hPa 0,0 l/m 0 min 0 min 0 W/m 19,3 km/h (3 Bft) 100,00 %
05.01.2023 20:22 10,1 C 9,4 C 6,1 C 97 % 1020,5 hPa 0,0 l/m 0 min 0 min 0 W/m 12,9 km/h (3 Bft) 95,74 %
05.01.2023 20:24 10,1 C 9,4 C 6,1 C 97 % 1020,5 hPa 0,0 l/m 0 min 0 min 0 W/m 12,9 km/h (3 Bft) 97,87 %
05.01.2023 20:26 10,1 C 9,4 C 6,1 C 97 % 1020,5 hPa 0,0 l/m 0 min 0 min 0 W/m 9,7 km/h (2 Bft) 97,83 %
05.01.2023 20:28 10,1 C 9,4 C 6,1 C 97 % 1020,5 hPa 0,0 l/m 0 min 0 min 0 W/m 12,9 km/h (3 Bft) 97,87 %
05.01.2023 20:30 10,2 C 9,4 C 6,7 C 97 % 1020,5 hPa 0,0 l/m 0 min 0 min 0 W/m 6,4 km/h (2 Bft) 97,87 %
05.01.2023 20:32 10,2 C 9,4 C 6,7 C 97 % 1020,5 hPa 0,0 l/m 0 min 0 min 0 W/m 12,9 km/h (3 Bft) 97,87 %
05.01.2023 20:34 10,2 C 9,4 C 6,7 C 97 % 1020,5 hPa 0,0 l/m 0 min 0 min 0 W/m 9,7 km/h (2 Bft) 95,74 %
05.01.2023 20:36 10,2 C 9,4 C 6,7 C 97 % 1020,5 hPa 0,0 l/m 0 min 0 min 0 W/m 6,4 km/h (2 Bft) 97,87 %
05.01.2023 20:38 10,2 C 9,4 C 6,7 C 97 % 1020,5 hPa 0,0 l/m 0 min 0 min 0 W/m 16,1 km/h (3 Bft) 97,87 %
05.01.2023 20:40 10,2 C 9,4 C 6,7 C 97 % 1020,5 hPa 0,0 l/m 0 min 0 min 0 W/m 6,4 km/h (2 Bft) 97,83 %
05.01.2023 20:42 10,2 C 9,4 C 6,7 C 97 % 1020,5 hPa 0,0 l/m 0 min 0 min 0 W/m 12,9 km/h (3 Bft) 97,87 %
05.01.2023 20:44 10,2 C 9,4 C 6,7 C 97 % 1020,4 hPa 0,0 l/m 0 min 0 min 0 W/m 12,9 km/h (3 Bft) 97,87 %
05.01.2023 20:46 10,2 C 9,4 C 6,7 C 97 % 1020,4 hPa 0,0 l/m 0 min 0 min 0 W/m 16,1 km/h (3 Bft) 97,87 %
05.01.2023 20:48 10,2 C 9,4 C 6,7 C 97 % 1020,5 hPa 0,0 l/m 0 min 0 min 0 W/m 9,7 km/h (2 Bft) 97,87 %
05.01.2023 20:50 10,2 C 9,4 C 6,7 C 97 % 1020,5 hPa 0,0 l/m 0 min 0 min 0 W/m 12,9 km/h (3 Bft) 97,87 %
05.01.2023 20:52 10,3 C 9,4 C 6,7 C 97 % 1020,5 hPa 0,0 l/m 0 min 0 min 0 W/m 12,9 km/h (3 Bft) 100,00 %
05.01.2023 20:54 10,3 C 9,4 C 6,7 C 98 % 1020,5 hPa 0,0 l/m 0 min 0 min 0 W/m 12,9 km/h (3 Bft) 100,00 %
05.01.2023 20:56 10,3 C 9,4 C 6,7 C 98 % 1020,4 hPa 0,0 l/m 0 min 0 min 0 W/m 9,7 km/h (2 Bft) 100,00 %
05.01.2023 20:58 10,3 C 9,4 C 6,7 C 98 % 1020,4 hPa 0,0 l/m 0 min 0 min 0 W/m 6,4 km/h (2 Bft) 97,87 %
05.01.2023 21:00 10,3 C 9,4 C 6,7 C 98 % 1020,4 hPa 0,0 l/m 0 min 0 min 0 W/m 12,9 km/h (3 Bft) 100,00 %
05.01.2023 21:02 10,3 C 9,4 C 6,7 C 98 % 1020,4 hPa 0,0 l/m 0 min 0 min 0 W/m 9,7 km/h (2 Bft) 100,00 %
05.01.2023 21:04 10,3 C 9,4 C 6,7 C 98 % 1020,4 hPa 0,0 l/m 0 min 0 min 0 W/m 12,9 km/h (3 Bft) 100,00 %
05.01.2023 21:06 10,3 C 9,4 C 6,7 C 98 % 1020,5 hPa 0,0 l/m 0 min 0 min 0 W/m 6,4 km/h (2 Bft) 100,00 %
05.01.2023 21:08 10,3 C 9,4 C 6,7 C 98 % 1020,5 hPa 0,0 l/m 0 min 0 min 0 W/m 6,4 km/h (2 Bft) 100,00 %
05.01.2023 21:10 10,3 C 9,4 C 6,7 C 98 % 1020,5 hPa 0,0 l/m 0 min 0 min 0 W/m 9,7 km/h (2 Bft) 100,00 %
05.01.2023 21:12 10,3 C 9,4 C 6,7 C 98 % 1020,4 hPa 0,0 l/m 0 min 0 min 0 W/m 6,4 km/h (2 Bft) 100,00 %
05.01.2023 21:14 10,3 C 9,4 C 6,7 C 98 % 1020,4 hPa 0,0 l/m 0 min 0 min 0 W/m 9,7 km/h (2 Bft) 100,00 %
05.01.2023 21:16 10,3 C 9,4 C 6,7 C 98 % 1020,3 hPa 0,0 l/m 0 min 0 min 0 W/m 3,2 km/h (1 Bft) 100,00 %
05.01.2023 21:18 10,3 C 9,4 C 6,7 C 98 % 1020,4 hPa 0,0 l/m 0 min 0 min 0 W/m 6,4 km/h (2 Bft) 100,00 %
05.01.2023 21:20 10,3 C 9,4 C 6,7 C 98 % 1020,4 hPa 0,0 l/m 0 min 0 min 0 W/m 3,2 km/h (1 Bft) 100,00 %
05.01.2023 21:22 10,3 C 9,4 C 6,7 C 98 % 1020,4 hPa 0,0 l/m 0 min 0 min 0 W/m 9,7 km/h (2 Bft) 100,00 %
05.01.2023 21:24 10,3 C 9,4 C 6,7 C 98 % 1020,4 hPa 0,0 l/m 0 min 0 min 0 W/m 6,4 km/h (2 Bft) 100,00 %
05.01.2023 21:26 10,3 C 9,4 C 6,7 C 98 % 1020,5 hPa 0,0 l/m 0 min 0 min 0 W/m 3,2 km/h (1 Bft) 100,00 %
05.01.2023 21:28 10,3 C 9,4 C 6,7 C 98 % 1020,4 hPa 0,0 l/m 0 min 0 min 0 W/m 3,2 km/h (1 Bft) 100,00 %
05.01.2023 21:30 10,4 C 9,4 C 6,7 C 98 % 1020,4 hPa 0,0 l/m 0 min 0 min 0 W/m 9,7 km/h (2 Bft) 95,74 %
05.01.2023 21:32 10,4 C 9,4 C 6,7 C 98 % 1020,4 hPa 0,0 l/m 0 min 0 min 0 W/m 9,7 km/h (2 Bft) 100,00 %
05.01.2023 21:34 10,4 C 9,4 C 6,7 C 98 % 1020,4 hPa 0,0 l/m 0 min 0 min 0 W/m 6,4 km/h (2 Bft) 100,00 %
05.01.2023 21:36 10,4 C 10,0 C 6,7 C 98 % 1020,4 hPa 0,0 l/m 0 min 0 min 0 W/m 9,7 km/h (2 Bft) 97,87 %
05.01.2023 21:38 10,4 C 10,0 C 6,7 C 98 % 1020,4 hPa 0,0 l/m 0 min 0 min 0 W/m 9,7 km/h (2 Bft) 100,00 %
05.01.2023 21:40 10,4 C 10,0 C 6,7 C 98 % 1020,4 hPa 0,0 l/m 0 min 0 min 0 W/m 6,4 km/h (2 Bft) 100,00 %
05.01.2023 21:42 10,4 C 10,0 C 6,7 C 98 % 1020,4 hPa 0,0 l/m 0 min 0 min 0 W/m 12,9 km/h (3 Bft) 100,00 %
05.01.2023 21:44 10,4 C 10,0 C 6,7 C 98 % 1020,4 hPa 0,0 l/m 0 min 0 min 0 W/m 9,7 km/h (2 Bft) 97,87 %
05.01.2023 21:46 10,5 C 10,0 C 6,7 C 98 % 1020,3 hPa 0,0 l/m 0 min 0 min 0 W/m 6,4 km/h (2 Bft) 100,00 %
05.01.2023 21:48 10,5 C 10,0 C 6,7 C 98 % 1020,4 hPa 0,0 l/m 0 min 0 min 0 W/m 12,9 km/h (3 Bft) 97,87 %
05.01.2023 21:50 10,6 C 10,0 C 6,7 C 98 % 1020,3 hPa 0,0 l/m 0 min 0 min 0 W/m 6,4 km/h (2 Bft) 93,62 %
05.01.2023 21:52 10,6 C 10,0 C 6,7 C 98 % 1020,3 hPa 0,0 l/m 0 min 0 min 0 W/m 12,9 km/h (3 Bft) 97,87 %
05.01.2023 21:54 10,6 C 10,0 C 6,7 C 98 % 1020,3 hPa 0,0 l/m 0 min 0 min 0 W/m 12,9 km/h (3 Bft) 100,00 %
05.01.2023 21:56 10,6 C 10,0 C 7,2 C 98 % 1020,3 hPa 0,0 l/m 0 min 0 min 0 W/m 16,1 km/h (3 Bft) 100,00 %
05.01.2023 21:58 10,6 C 10,0 C 7,2 C 98 % 1020,3 hPa 0,0 l/m 0 min 0 min 0 W/m 12,9 km/h (3 Bft) 97,87 %
05.01.2023 22:00 10,7 C 10,0 C 7,2 C 98 % 1020,3 hPa 0,0 l/m 0 min 0 min 0 W/m 16,1 km/h (3 Bft) 97,83 %
05.01.2023 22:02 10,7 C 10,0 C 7,2 C 98 % 1020,3 hPa 0,0 l/m 0 min 0 min 0 W/m 12,9 km/h (3 Bft) 95,74 %
05.01.2023 22:04 10,7 C 10,0 C 7,2 C 98 % 1020,3 hPa 0,0 l/m 0 min 0 min 0 W/m 9,7 km/h (2 Bft) 95,74 %
05.01.2023 22:06 10,7 C 10,0 C 7,2 C 98 % 1020,4 hPa 0,0 l/m 0 min 0 min 0 W/m 9,7 km/h (2 Bft) 95,74 %
05.01.2023 22:08 10,8 C 10,0 C 7,2 C 98 % 1020,4 hPa 0,0 l/m 0 min 0 min 0 W/m 9,7 km/h (2 Bft) 95,74 %
05.01.2023 22:10 10,8 C 10,0 C 7,2 C 98 % 1020,3 hPa 0,0 l/m 0 min 0 min 0 W/m 6,4 km/h (2 Bft) 95,74 %
05.01.2023 22:12 10,8 C 10,0 C 7,2 C 98 % 1020,3 hPa 0,0 l/m 0 min 0 min 0 W/m 9,7 km/h (2 Bft) 95,65 %
05.01.2023 22:14 10,8 C 10,0 C 7,2 C 98 % 1020,3 hPa 0,0 l/m 0 min 0 min 0 W/m 12,9 km/h (3 Bft) 91,49 %
05.01.2023 22:16 10,8 C 10,0 C 7,2 C 98 % 1020,3 hPa 0,0 l/m 0 min 0 min 0 W/m 9,7 km/h (2 Bft) 91,49 %
05.01.2023 22:18 10,8 C 10,0 C 7,2 C 98 % 1020,2 hPa 0,0 l/m 0 min 0 min 0 W/m 6,4 km/h (2 Bft) 93,62 %
05.01.2023 22:20 10,8 C 10,0 C 7,2 C 98 % 1020,3 hPa 0,0 l/m 0 min 0 min 0 W/m 16,1 km/h (3 Bft) 94,44 %
05.01.2023 22:22 10,8 C 10,0 C 7,2 C 98 % 1020,3 hPa 0,0 l/m 0 min 0 min 0 W/m 16,1 km/h (3 Bft) 92,00 %
05.01.2023 22:24 10,8 C 10,6 C 7,2 C 98 % 1020,3 hPa 0,0 l/m 0 min 0 min 0 W/m 9,7 km/h (2 Bft) 91,89 %
05.01.2023 22:26 10,9 C 10,6 C 7,2 C 98 % 1020,4 hPa 0,0 l/m 0 min 0 min 0 W/m 6,4 km/h (2 Bft) 93,48 %
05.01.2023 22:28 10,9 C 10,0 C 7,2 C 98 % 1020,3 hPa 0,0 l/m 0 min 0 min 0 W/m 9,7 km/h (2 Bft) 92,59 %
05.01.2023 22:30 10,9 C 10,0 C 7,2 C 98 % 1020,3 hPa 0,0 l/m 0 min 0 min 0 W/m 9,7 km/h (2 Bft) 92,00 %
05.01.2023 22:32 10,9 C 10,0 C 7,2 C 98 % 1020,2 hPa 0,0 l/m 0 min 0 min 0 W/m 16,1 km/h (3 Bft) 91,89 %
05.01.2023 22:34 10,9 C 10,0 C 7,2 C 98 % 1020,3 hPa 0,0 l/m 0 min 0 min 0 W/m 12,9 km/h (3 Bft) 95,74 %
05.01.2023 22:36 10,9 C 10,0 C 7,2 C 98 % 1020,3 hPa 0,0 l/m 0 min 0 min 0 W/m 6,4 km/h (2 Bft) 93,62 %
05.01.2023 22:38 10,9 C 10,0 C 7,2 C 98 % 1020,2 hPa 0,0 l/m 0 min 0 min 0 W/m 12,9 km/h (3 Bft) 93,48 %
05.01.2023 22:40 10,9 C 10,0 C 7,2 C 98 % 1020,3 hPa 0,0 l/m 0 min 0 min 0 W/m 6,4 km/h (2 Bft) 93,62 %
05.01.2023 22:42 10,9 C 10,0 C 7,2 C 98 % 1020,3 hPa 0,0 l/m 0 min 0 min 0 W/m 6,4 km/h (2 Bft) 93,62 %
05.01.2023 22:44 10,9 C 10,0 C 7,2 C 98 % 1020,3 hPa 0,0 l/m 0 min 0 min 0 W/m 9,7 km/h (2 Bft) 93,62 %
05.01.2023 22:46 10,9 C 10,0 C 7,2 C 98 % 1020,3 hPa 0,0 l/m 0 min 0 min 0 W/m 9,7 km/h (2 Bft) 95,74 %
05.01.2023 22:48 10,9 C 10,6 C 7,2 C 98 % 1020,3 hPa 0,0 l/m 0 min 0 min 0 W/m 9,7 km/h (2 Bft) 97,87 %
05.01.2023 22:50 10,9 C 10,6 C 7,2 C 98 % 1020,3 hPa 0,0 l/m 0 min 0 min 0 W/m 16,1 km/h (3 Bft) 97,83 %
05.01.2023 22:52 10,9 C 10,6 C 7,2 C 98 % 1020,3 hPa 0,0 l/m 0 min 0 min 0 W/m 12,9 km/h (3 Bft) 97,87 %
05.01.2023 22:54 10,9 C 10,6 C 7,2 C 98 % 1020,2 hPa 0,0 l/m 0 min 0 min 0 W/m 6,4 km/h (2 Bft) 100,00 %
05.01.2023 22:56 10,9 C 10,6 C 7,2 C 98 % 1020,3 hPa 0,0 l/m 0 min 0 min 0 W/m 9,7 km/h (2 Bft) 100,00 %
05.01.2023 22:58 10,9 C 10,6 C 7,2 C 98 % 1020,1 hPa 0,0 l/m 0 min 0 min 0 W/m 6,4 km/h (2 Bft) 100,00 %
05.01.2023 23:00 10,9 C 10,6 C 7,2 C 98 % 1020,2 hPa 0,0 l/m 0 min 0 min 0 W/m 9,7 km/h (2 Bft) 100,00 %
05.01.2023 23:02 10,9 C 10,6 C 7,2 C 98 % 1020,2 hPa 0,0 l/m 0 min 0 min 0 W/m 6,4 km/h (2 Bft) 95,74 %
05.01.2023 23:04 10,8 C 10,6 C 7,2 C 98 % 1020,2 hPa 0,0 l/m 0 min 0 min 0 W/m 9,7 km/h (2 Bft) 100,00 %
05.01.2023 23:06 10,8 C 10,6 C 7,2 C 98 % 1020,2 hPa 0,0 l/m 0 min 0 min 0 W/m 3,2 km/h (1 Bft) 98,31 %
05.01.2023 23:08 10,8 C 10,6 C 7,2 C 98 % 1020,2 hPa 0,0 l/m 0 min 0 min 0 W/m 3,2 km/h (1 Bft) 97,14 %
05.01.2023 23:10 10,8 C 10,6 C 7,2 C 98 % 1020,2 hPa 0,0 l/m 0 min 0 min 0 W/m 12,9 km/h (3 Bft) 100,00 %
05.01.2023 23:12 10,8 C 10,6 C 7,2 C 98 % 1020,1 hPa 0,0 l/m 0 min 0 min 0 W/m 9,7 km/h (2 Bft) 97,87 %
05.01.2023 23:14 10,8 C 10,6 C 7,2 C 98 % 1020,1 hPa 0,0 l/m 0 min 0 min 0 W/m 9,7 km/h (2 Bft) 100,00 %
05.01.2023 23:16 10,8 C 10,6 C 7,2 C 98 % 1020,0 hPa 0,0 l/m 0 min 0 min 0 W/m 12,9 km/h (3 Bft) 100,00 %
05.01.2023 23:18 10,9 C 10,6 C 7,2 C 98 % 1020,0 hPa 0,0 l/m 0 min 0 min 0 W/m 9,7 km/h (2 Bft) 100,00 %
05.01.2023 23:20 10,9 C 10,6 C 7,2 C 98 % 1020,0 hPa 0,0 l/m 0 min 0 min 0 W/m 12,9 km/h (3 Bft) 100,00 %
05.01.2023 23:22 10,8 C 10,6 C 7,2 C 98 % 1020,0 hPa 0,0 l/m 0 min 0 min 0 W/m 12,9 km/h (3 Bft) 100,00 %
05.01.2023 23:24 10,8 C 10,6 C 7,2 C 98 % 1019,9 hPa 0,0 l/m 0 min 0 min 0 W/m 9,7 km/h (2 Bft) 100,00 %
05.01.2023 23:26 10,9 C 10,6 C 7,2 C 98 % 1019,9 hPa 0,0 l/m 0 min 0 min 0 W/m 9,7 km/h (2 Bft) 100,00 %
05.01.2023 23:28 10,9 C 10,6 C 7,2 C 98 % 1019,8 hPa 0,0 l/m 0 min 0 min 0 W/m 16,1 km/h (3 Bft) 100,00 %
05.01.2023 23:30 10,9 C 10,6 C 7,2 C 98 % 1019,9 hPa 0,0 l/m 0 min 0 min 0 W/m 9,7 km/h (2 Bft) 95,74 %
05.01.2023 23:32 10,8 C 10,6 C 7,2 C 98 % 1019,9 hPa 0,0 l/m 0 min 0 min 0 W/m 12,9 km/h (3 Bft) 100,00 %
05.01.2023 23:34 10,8 C 10,6 C 7,2 C 98 % 1019,9 hPa 0,0 l/m 0 min 0 min 0 W/m 6,4 km/h (2 Bft) 100,00 %
05.01.2023 23:36 10,8 C 10,6 C 7,2 C 98 % 1019,8 hPa 0,0 l/m 0 min 0 min 0 W/m 9,7 km/h (2 Bft) 100,00 %
05.01.2023 23:38 10,8 C 10,6 C 7,2 C 98 % 1019,9 hPa 0,0 l/m 0 min 0 min 0 W/m 9,7 km/h (2 Bft) 100,00 %
05.01.2023 23:40 10,8 C 10,6 C 7,2 C 98 % 1019,9 hPa 0,0 l/m 0 min 0 min 0 W/m 12,9 km/h (3 Bft) 97,83 %
05.01.2023 23:42 10,8 C 10,6 C 7,8 C 98 % 1019,9 hPa 0,0 l/m 0 min 0 min 0 W/m 19,3 km/h (3 Bft) 100,00 %
05.01.2023 23:44 10,8 C 10,6 C 7,8 C 98 % 1019,9 hPa 0,0 l/m 0 min 0 min 0 W/m 19,3 km/h (3 Bft) 100,00 %
05.01.2023 23:46 10,8 C 10,6 C 7,8 C 98 % 1020,0 hPa 0,0 l/m 0 min 0 min 0 W/m 12,9 km/h (3 Bft) 100,00 %
05.01.2023 23:48 10,8 C 10,6 C 7,8 C 98 % 1020,0 hPa 0,0 l/m 0 min 0 min 0 W/m 16,1 km/h (3 Bft) 100,00 %
05.01.2023 23:50 10,8 C 10,6 C 7,8 C 98 % 1020,0 hPa 0,0 l/m 0 min 0 min 0 W/m 22,5 km/h (4 Bft) 100,00 %
05.01.2023 23:52 10,8 C 10,6 C 7,8 C 98 % 1019,9 hPa 0,0 l/m 0 min 0 min 0 W/m 19,3 km/h (3 Bft) 100,00 %
05.01.2023 23:54 10,8 C 10,6 C 7,8 C 98 % 1019,9 hPa 0,0 l/m 0 min 0 min 0 W/m 22,5 km/h (4 Bft) 100,00 %
05.01.2023 23:56 10,8 C 10,6 C 7,8 C 98 % 1020,0 hPa 0,0 l/m 0 min 0 min 0 W/m 16,1 km/h (3 Bft) 100,00 %
05.01.2023 23:58 10,8 C 10,6 C 7,8 C 97 % 1019,9 hPa 0,0 l/m 0 min 0 min 0 W/m 16,1 km/h (3 Bft) 100,00 %
_ Min-Zeit 07:44 07:46 05:10 14:44 00:04 - - - - 13:30 08:58
Minimum _ 9,9 C 8,9 C 5,6 C 82 % 1016,5 hPa - - - - 3,2 km/h (1 Bft) 50,00 %
_ Max-Zeit 13:42 13:38 13:40 20:54 15:46 05:46 11:50 05:00 13:40 03:42 00:00
Maximum _ 12,2 C 15,0 C 8,9 C 98 % 1021,7 hPa 0,2 l/m 2 min 2 min 354 W/m 45,1 km/h
S (6 Bft)
100,00 %
Durchschnitt _ 10,8 C 10,3 C 6,9 C 91 % 1019,8 hPa #0,8 l/m #1:10 h #1:50 h 86 W/m 14,7 km/h (3 Bft) 97,00 %
© 2023 W. Hausmann